Observation data for Tahoka on 04/25/2019      Previous  Date  Next       Current Mesonet Observations  Soil Data  Daily Summary Page  Observations in Plain Language
KTAS 250500Z 21008KT 12/11 A2992 RMK A01 T01190108  RH  093%=      5-min Rain = 0
KTAS 250501Z 20007KT 12/11 A2992 RMK A01 T01190109  RH  093%=      5-min Rain = 0
KTAS 250502Z 20007KT 12/11 A2992 RMK A01 T01190109  RH  093%=      5-min Rain = 0
KTAS 250503Z 19006KT 12/11 A2992 RMK A01 T01200109  RH  093%=      5-min Rain = 0
KTAS 250504Z 20006KT 12/11 A2992 RMK A01 T01190108  RH  093%=      5-min Rain = 0
KTAS 250505Z 19006KT 12/11 A2992 RMK A01 T01190108  RH  093%=      5-min Rain = 0
KTAS 250506Z 20006KT 12/11 A2992 RMK A01 T01190108  RH  093%=      5-min Rain = 0
KTAS 250507Z 21008KT 12/11 A2992 RMK A01 T01190108  RH  093%=      5-min Rain = 0
KTAS 250508Z 21009KT 12/11 A2992 RMK A01 T01200108  RH  093%=      5-min Rain = 0
KTAS 250509Z 21011KT 12/11 A2992 RMK A01 T01200109  RH  093%=      5-min Rain = 0
KTAS 250510Z 21011KT 12/11 A2992 RMK A01 T01200109  RH  093%=      5-min Rain = 0
KTAS 250511Z 21010KT 12/11 A2992 RMK A01 T01200109  RH  093%=      5-min Rain = 0
KTAS 250512Z 21010KT 12/11 A2992 RMK A01 T01200109  RH  092%=      5-min Rain = 0
KTAS 250513Z 21010KT 12/11 A2992 RMK A01 T01200109  RH  093%=      5-min Rain = 0
KTAS 250514Z 21009KT 12/11 A2992 RMK A01 T01200109  RH  093%=      5-min Rain = 0
KTAS 250515Z 21010KT 12/11 A2992 RMK A01 T01200108  RH  093%=      5-min Rain = 0
KTAS 250516Z 21010KT 12/11 A2992 RMK A01 T01200108  RH  093%=      5-min Rain = 0
KTAS 250517Z 21009KT 12/11 A2992 RMK A01 T01200108  RH  093%=      5-min Rain = 0
KTAS 250518Z 21008KT 12/11 A2992 RMK A01 T01190108  RH  092%=      5-min Rain = 0
KTAS 250519Z 21008KT 12/11 A2992 RMK A01 T01190108  RH  093%=      5-min Rain = 0
KTAS 250520Z 21008KT 12/11 A2992 RMK A01 T01190107  RH  093%=      5-min Rain = 0
KTAS 250521Z 21009KT 12/11 A2992 RMK A01 T01180107  RH  093%=      5-min Rain = 0
KTAS 250522Z 21009KT 12/11 A2992 RMK A01 T01180107  RH  093%=      5-min Rain = 0
KTAS 250523Z 21009KT 12/11 A2992 RMK A01 T01180107  RH  093%=      5-min Rain = 0
KTAS 250524Z 21009KT 12/11 A2992 RMK A01 T01180107  RH  093%=      5-min Rain = 0
KTAS 250525Z 21008KT 12/11 A2992 RMK A01 T01180107  RH  093%=      5-min Rain = 0
KTAS 250526Z 21009KT 12/11 A2992 RMK A01 T01180107  RH  093%=      5-min Rain = 0
KTAS 250527Z 21009KT 12/11 A2992 RMK A01 T01180107  RH  093%=      5-min Rain = 0
KTAS 250528Z 21009KT 12/11 A2992 RMK A01 T01180107  RH  093%=      5-min Rain = 0
KTAS 250529Z 21009KT 12/11 A2992 RMK A01 T01180106  RH  093%=      5-min Rain = 0
KTAS 250530Z 22010KT 12/11 A2992 RMK A01 T01170106  RH  093%=      5-min Rain = 0
KTAS 250531Z 22010KT 12/11 A2992 RMK A01 T01170107  RH  093%=      5-min Rain = 0
KTAS 250532Z 22010KT 12/11 A2992 RMK A01 T01170107  RH  093%=      5-min Rain = 0
KTAS 250533Z 21010KT 12/11 A2992 RMK A01 T01170106  RH  093%=      5-min Rain = 0
KTAS 250534Z 21009KT 12/11 A2992 RMK A01 T01170106  RH  093%=      5-min Rain = 0
KTAS 250535Z 22010KT 12/11 A2992 RMK A01 T01160106  RH  093%=      5-min Rain = 0
KTAS 250536Z 22009KT 12/11 A2992 RMK A01 T01160106  RH  093%=      5-min Rain = 0
KTAS 250537Z 22010KT 12/11 A2992 RMK A01 T01160106  RH  093%=      5-min Rain = 0
KTAS 250538Z 22010KT 12/11 A2992 RMK A01 T01160106  RH  093%=      5-min Rain = 0
KTAS 250539Z 22009KT 12/11 A2992 RMK A01 T01160106  RH  093%=      5-min Rain = 0
KTAS 250540Z 21009KT 12/11 A2992 RMK A01 T01160105  RH  093%=      5-min Rain = 0
KTAS 250541Z 22009KT 12/11 A2992 RMK A01 T01150105  RH  094%=      5-min Rain = 0
KTAS 250542Z 22009KT 12/11 A2992 RMK A01 T01150105  RH  094%=      5-min Rain = 0
KTAS 250543Z 22009KT 12/11 A2992 RMK A01 T01150105  RH  094%=      5-min Rain = 0
KTAS 250544Z 22009KT 12/11 A2992 RMK A01 T01150105  RH  094%=      5-min Rain = 0
KTAS 250545Z 22008KT 12/11 A2992 RMK A01 T01150105  RH  094%=      5-min Rain = 0
KTAS 250546Z 22009KT 11/11 A2992 RMK A01 T01140105  RH  094%=      5-min Rain = 0
KTAS 250547Z 22008KT 12/11 A2992 RMK A01 T01150105  RH  094%=      5-min Rain = 0
KTAS 250548Z 21010KT 11/11 A2992 RMK A01 T01140105  RH  094%=      5-min Rain = 0
KTAS 250549Z 21009KT 12/11 A2992 RMK A01 T01150106  RH  094%=      5-min Rain = 0
KTAS 250550Z 21009KT 12/11 A2992 RMK A01 T01150105  RH  094%=      5-min Rain = 0
KTAS 250551Z 22009KT 12/11 A2992 RMK A01 T01150105  RH  094%=      5-min Rain = 0
KTAS 250552Z 22010KT 12/11 A2992 RMK A01 T01150105  RH  094%=      5-min Rain = 0
KTAS 250553Z 21009KT 12/11 A2992 RMK A01 T01150106  RH  094%=      5-min Rain = 0
KTAS 250554Z 22009KT 12/11 A2992 RMK A01 T01150106  RH  094%=      5-min Rain = 0
KTAS 250555Z 22009KT 12/11 A2992 RMK A01 T01150105  RH  094%=      5-min Rain = 0
KTAS 250556Z 22010KT 12/11 A2992 RMK A01 T01150106  RH  094%=      5-min Rain = 0
KTAS 250557Z 22010KT 12/11 A2992 RMK A01 T01160106  RH  094%=      5-min Rain = 0
KTAS 250558Z 22008KT 12/11 A2992 RMK A01 T01160106  RH  094%=      5-min Rain = 0
KTAS 250559Z 22009KT 12/11 A2992 RMK A01 T01160106  RH  094%=      5-min Rain = 0
KTAS 250600Z 22009KT 12/11 A2992 RMK A01 T01150105  RH  093%=      5-min Rain = 0
KTAS 250601Z 22009KT 12/11 A2992 RMK A01 T01160106  RH  094%=      5-min Rain = 0
KTAS 250602Z 22009KT 12/11 A2992 RMK A01 T01160105  RH  093%=      5-min Rain = 0
KTAS 250603Z 22009KT 12/11 A2992 RMK A01 T01150105  RH  093%=      5-min Rain = 0
KTAS 250604Z 21008KT 12/11 A2992 RMK A01 T01150105  RH  093%=      5-min Rain = 0
KTAS 250605Z 22009KT 12/11 A2992 RMK A01 T01150105  RH  093%=      5-min Rain = 0
KTAS 250606Z 21009KT 12/11 A2992 RMK A01 T01150105  RH  093%=      5-min Rain = 0
KTAS 250607Z 21008KT 12/11 A2992 RMK A01 T01150105  RH  093%=      5-min Rain = 0
KTAS 250608Z 21009KT 12/10 A2992 RMK A01 T01150104  RH  093%=      5-min Rain = 0
KTAS 250609Z 21009KT 12/10 A2992 RMK A01 T01150104  RH  093%=      5-min Rain = 0
KTAS 250610Z 21008KT 12/10 A2992 RMK A01 T01150104  RH  093%=      5-min Rain = 0
KTAS 250611Z 21008KT 11/10 A2992 RMK A01 T01140104  RH  093%=      5-min Rain = 0
KTAS 250612Z 21010KT 12/10 A2992 RMK A01 T01150104  RH  093%=      5-min Rain = 0
KTAS 250613Z 21009KT 11/10 A2992 RMK A01 T01140104  RH  093%=      5-min Rain = 0
KTAS 250614Z 21009KT 11/10 A2992 RMK A01 T01140104  RH  093%=      5-min Rain = 0
KTAS 250615Z 21009KT 11/10 A2992 RMK A01 T01140103  RH  093%=      5-min Rain = 0
KTAS 250616Z 21009KT 11/10 A2992 RMK A01 T01140103  RH  093%=      5-min Rain = 0
KTAS 250617Z 21009KT 11/10 A2992 RMK A01 T01140104  RH  093%=      5-min Rain = 0
KTAS 250618Z 21009KT 12/11 A2992 RMK A01 T01150105  RH  093%=      5-min Rain = 0
KTAS 250619Z 21009KT 12/11 A2992 RMK A01 T01150105  RH  093%=      5-min Rain = 0
KTAS 250620Z 20009KT 12/11 A2992 RMK A01 T01160105  RH  093%=      5-min Rain = 0
KTAS 250621Z 20009KT 12/11 A2992 RMK A01 T01160105  RH  093%=      5-min Rain = 0
KTAS 250622Z 20009KT 12/11 A2992 RMK A01 T01160105  RH  093%=      5-min Rain = 0
KTAS 250623Z 20009KT 12/11 A2992 RMK A01 T01160105  RH  093%=      5-min Rain = 0
KTAS 250624Z 20009KT 12/11 A2992 RMK A01 T01160105  RH  093%=      5-min Rain = 0
KTAS 250625Z 20008KT 12/11 A2992 RMK A01 T01170106  RH  093%=      5-min Rain = 0
KTAS 250626Z 20007KT 12/11 A2992 RMK A01 T01170105  RH  093%=      5-min Rain = 0
KTAS 250627Z 20006KT 12/10 A2992 RMK A01 T01160104  RH  092%=      5-min Rain = 0
KTAS 250628Z 20007KT 12/10 A2992 RMK A01 T01150104  RH  093%=      5-min Rain = 0
KTAS 250629Z 20007KT 12/10 A2992 RMK A01 T01150104  RH  093%=      5-min Rain = 0
KTAS 250630Z 20007KT 12/10 A2991 RMK A01 T01150104  RH  093%=      5-min Rain = 0
KTAS 250631Z 20007KT 11/10 A2991 RMK A01 T01140103  RH  093%=      5-min Rain = 0
KTAS 250632Z 20007KT 11/10 A2991 RMK A01 T01140104  RH  093%=      5-min Rain = 0
KTAS 250633Z 20007KT 11/10 A2991 RMK A01 T01140104  RH  093%=      5-min Rain = 0
KTAS 250634Z 20007KT 11/10 A2991 RMK A01 T01140104  RH  094%=      5-min Rain = 0
KTAS 250635Z 20007KT 11/10 A2991 RMK A01 T01140104  RH  094%=      5-min Rain = 0
KTAS 250636Z 20007KT 11/11 A2991 RMK A01 T01140105  RH  094%=      5-min Rain = 0
KTAS 250637Z 20007KT 11/10 A2991 RMK A01 T01140104  RH  094%=      5-min Rain = 0
KTAS 250638Z 20006KT 11/10 A2991 RMK A01 T01140104  RH  094%=      5-min Rain = 0
KTAS 250639Z 20006KT 11/10 A2991 RMK A01 T01140104  RH  094%=      5-min Rain = 0
KTAS 250640Z 20006KT 11/10 A2991 RMK A01 T01140104  RH  094%=      5-min Rain = 0
KTAS 250641Z 20006KT 11/10 A2991 RMK A01 T01130103  RH  094%=      5-min Rain = 0
KTAS 250642Z 20007KT 11/10 A2991 RMK A01 T01130103  RH  094%=      5-min Rain = 0
KTAS 250643Z 21007KT 11/10 A2991 RMK A01 T01130104  RH  094%=      5-min Rain = 0
KTAS 250644Z 21007KT 11/10 A2991 RMK A01 T01140104  RH  094%=      5-min Rain = 0
KTAS 250645Z 21007KT 11/10 A2991 RMK A01 T01130104  RH  094%=      5-min Rain = 0
KTAS 250646Z 21007KT 11/11 A2991 RMK A01 T01140105  RH  094%=      5-min Rain = 0
KTAS 250647Z 21007KT 11/10 A2991 RMK A01 T01140104  RH  094%=      5-min Rain = 0
KTAS 250648Z 21008KT 11/11 A2991 RMK A01 T01140105  RH  094%=      5-min Rain = 0
KTAS 250649Z 21008KT 11/10 A2991 RMK A01 T01140104  RH  094%=      5-min Rain = 0
KTAS 250650Z 21008KT 11/11 A2991 RMK A01 T01140105  RH  094%=      5-min Rain = 0
KTAS 250651Z 20007KT 11/11 A2991 RMK A01 T01140105  RH  094%=      5-min Rain = 0
KTAS 250652Z 21008KT 11/10 A2991 RMK A01 T01140104  RH  094%=      5-min Rain = 0
KTAS 250653Z 20008KT 11/10 A2991 RMK A01 T01140104  RH  094%=      5-min Rain = 0
KTAS 250654Z 21008KT 11/11 A2991 RMK A01 T01140105  RH  094%=      5-min Rain = 0
KTAS 250655Z 20009KT 11/11 A2991 RMK A01 T01140105  RH  094%=      5-min Rain = 0
KTAS 250656Z 20008KT 11/11 A2991 RMK A01 T01140105  RH  094%=      5-min Rain = 0
KTAS 250657Z 20007KT 12/11 A2991 RMK A01 T01150105  RH  094%=      5-min Rain = 0
KTAS 250658Z 20007KT 11/11 A2991 RMK A01 T01140105  RH  094%=      5-min Rain = 0
KTAS 250659Z 20007KT 11/11 A2991 RMK A01 T01140105  RH  094%=      5-min Rain = 0
KTAS 250700Z 21007KT 11/10 A2991 RMK A01 T01140104  RH  094%=      5-min Rain = 0
KTAS 250701Z 20008KT 11/11 A2991 RMK A01 T01140105  RH  094%=      5-min Rain = 0
KTAS 250702Z 21007KT 11/11 A2991 RMK A01 T01140105  RH  094%=      5-min Rain = 0
KTAS 250703Z 21007KT 11/11 A2991 RMK A01 T01140105  RH  094%=      5-min Rain = 0
KTAS 250704Z 21008KT 11/10 A2991 RMK A01 T01130104  RH  094%=      5-min Rain = 0
KTAS 250705Z 21007KT 11/10 A2991 RMK A01 T01130104  RH  094%=      5-min Rain = 0
KTAS 250706Z 21007KT 11/10 A2991 RMK A01 T01130104  RH  094%=      5-min Rain = 0
KTAS 250707Z 21007KT 11/10 A299 RMK A01 T01130104  RH  094%=      5-min Rain = 0
KTAS 250708Z 21007KT 11/10 A299 RMK A01 T01130104  RH  094%=      5-min Rain = 0
KTAS 250709Z 21007KT 11/10 A299 RMK A01 T01120104  RH  094%=      5-min Rain = 0
KTAS 250710Z 21008KT 11/10 A299 RMK A01 T01120104  RH  094%=      5-min Rain = 0
KTAS 250711Z 21006KT 11/10 A299 RMK A01 T01120103  RH  094%=      5-min Rain = 0
KTAS 250712Z 21007KT 11/10 A299 RMK A01 T01120103  RH  094%=      5-min Rain = 0
KTAS 250713Z 21007KT 11/10 A299 RMK A01 T01110102  RH  094%=      5-min Rain = 0
KTAS 250714Z 21007KT 11/10 A299 RMK A01 T01110102  RH  094%=      5-min Rain = 0
KTAS 250715Z 21007KT 11/10 A299 RMK A01 T01120103  RH  094%=      5-min Rain = 0
KTAS 250716Z 21006KT 11/10 A299 RMK A01 T01110102  RH  094%=      5-min Rain = 0
KTAS 250717Z 21007KT 11/10 A299 RMK A01 T01110102  RH  094%=      5-min Rain = 0
KTAS 250718Z 21007KT 11/10 A299 RMK A01 T01110102  RH  094%=      5-min Rain = 0
KTAS 250719Z 21007KT 11/10 A299 RMK A01 T01110102  RH  094%=      5-min Rain = 0
KTAS 250720Z 21007KT 11/10 A299 RMK A01 T01110102  RH  094%=      5-min Rain = 0
KTAS 250721Z 21007KT 11/10 A299 RMK A01 T01110102  RH  094%=      5-min Rain = 0
KTAS 250722Z 22007KT 11/10 A299 RMK A01 T01110102  RH  094%=      5-min Rain = 0
KTAS 250723Z 22008KT 11/10 A299 RMK A01 T01110102  RH  094%=      5-min Rain = 0
KTAS 250724Z 22008KT 11/10 A299 RMK A01 T01110102  RH  094%=      5-min Rain = 0
KTAS 250725Z 22008KT 11/10 A299 RMK A01 T01110102  RH  094%=      5-min Rain = 0
KTAS 250726Z 22008KT 11/10 A299 RMK A01 T01110102  RH  094%=      5-min Rain = 0
KTAS 250727Z 22008KT 11/10 A299 RMK A01 T01120102  RH  094%=      5-min Rain = 0
KTAS 250728Z 22008KT 11/10 A299 RMK A01 T01120102  RH  094%=      5-min Rain = 0
KTAS 250729Z 22008KT 11/10 A299 RMK A01 T01130103  RH  094%=      5-min Rain = 0
KTAS 250730Z 22008KT 11/10 A299 RMK A01 T01120102  RH  094%=      5-min Rain = 0
KTAS 250731Z 22008KT 11/10 A2989 RMK A01 T01120102  RH  094%=      5-min Rain = 0
KTAS 250732Z 22009KT 11/10 A2989 RMK A01 T01120102  RH  093%=      5-min Rain = 0
KTAS 250733Z 22009KT 11/10 A2989 RMK A01 T01130102  RH  093%=      5-min Rain = 0
KTAS 250734Z 22009KT 11/10 A2989 RMK A01 T01120102  RH  093%=      5-min Rain = 0
KTAS 250735Z 23008KT 11/10 A2989 RMK A01 T01120102  RH  093%=      5-min Rain = 0
KTAS 250736Z 23009KT 11/10 A2989 RMK A01 T01120102  RH  093%=      5-min Rain = 0
KTAS 250737Z 23009KT 11/10 A2989 RMK A01 T01120102  RH  093%=      5-min Rain = 0
KTAS 250738Z 23009KT 11/10 A2989 RMK A01 T01130102  RH  093%=      5-min Rain = 0
KTAS 250739Z 23008KT 11/10 A299 RMK A01 T01130102  RH  093%=      5-min Rain = 0
KTAS 250740Z 23009KT 11/10 A299 RMK A01 T01130102  RH  093%=      5-min Rain = 0
KTAS 250741Z 23010KT 11/10 A299 RMK A01 T01130102  RH  093%=      5-min Rain = 0
KTAS 250742Z 23009KT 11/10 A299 RMK A01 T01130102  RH  093%=      5-min Rain = 0
KTAS 250743Z 23008KT 11/10 A299 RMK A01 T01130101  RH  093%=      5-min Rain = 0
KTAS 250744Z 23010KT 11/10 A299 RMK A01 T01130101  RH  093%=      5-min Rain = 0
KTAS 250745Z 23009KT 11/10 A299 RMK A01 T01120101  RH  093%=      5-min Rain = 0
KTAS 250746Z 23008KT 11/10 A299 RMK A01 T01130101  RH  093%=      5-min Rain = 0
KTAS 250747Z 23009KT 11/10 A2989 RMK A01 T01120101  RH  093%=      5-min Rain = 0
KTAS 250748Z 23009KT 11/10 A2989 RMK A01 T01120101  RH  093%=      5-min Rain = 0
KTAS 250749Z 23008KT 11/10 A2989 RMK A01 T01120100  RH  092%=      5-min Rain = 0
KTAS 250750Z 23009KT 11/10 A2989 RMK A01 T01120100  RH  092%=      5-min Rain = 0
KTAS 250751Z 24009KT 11/10 A2989 RMK A01 T01120100  RH  092%=      5-min Rain = 0
KTAS 250752Z 23009KT 11/10 A2989 RMK A01 T01110099  RH  092%=      5-min Rain = 0
KTAS 250753Z 23009KT 11/10 A2989 RMK A01 T01110099  RH  092%=      5-min Rain = 0
KTAS 250754Z 24009KT 11/10 A2989 RMK A01 T01110098  RH  092%=      5-min Rain = 0
KTAS 250755Z 23008KT 11/10 A2989 RMK A01 T01110098  RH  092%=      5-min Rain = 0
KTAS 250756Z 24008KT 11/10 A2989 RMK A01 T01110098  RH  092%=      5-min Rain = 0
KTAS 250757Z 24009KT 11/10 A2989 RMK A01 T01110098  RH  092%=      5-min Rain = 0
KTAS 250758Z 24008KT 11/10 A2989 RMK A01 T01110097  RH  091%=      5-min Rain = 0
KTAS 250759Z 24009KT 11/10 A2989 RMK A01 T01110097  RH  091%=      5-min Rain = 0
KTAS 250800Z 23008KT 11/10 A2989 RMK A01 T01110097  RH  091%=      5-min Rain = 0
KTAS 250801Z 23008KT 11/10 A2989 RMK A01 T01110097  RH  091%=      5-min Rain = 0
KTAS 250802Z 23009KT 11/10 A2989 RMK A01 T01110097  RH  091%=      5-min Rain = 0
KTAS 250803Z 23008KT 11/10 A2989 RMK A01 T01110097  RH  091%=      5-min Rain = 0
KTAS 250804Z 23009KT 11/10 A2989 RMK A01 T01120096  RH  090%=      5-min Rain = 0
KTAS 250805Z 24008KT 11/10 A2988 RMK A01 T01110096  RH  090%=      5-min Rain = 0
KTAS 250806Z 23009KT 11/10 A2988 RMK A01 T01110096  RH  090%=      5-min Rain = 0
KTAS 250807Z 24009KT 11/10 A2988 RMK A01 T01110096  RH  090%=      5-min Rain = 0
KTAS 250808Z 24008KT 11/10 A2988 RMK A01 T01110095  RH  090%=      5-min Rain = 0
KTAS 250809Z 24009KT 11/10 A2988 RMK A01 T01110095  RH  090%=      5-min Rain = 0
KTAS 250810Z 23009KT 11/10 A2988 RMK A01 T01110095  RH  090%=      5-min Rain = 0
KTAS 250811Z 23009KT 11/10 A2988 RMK A01 T01110095  RH  090%=      5-min Rain = 0
KTAS 250812Z 23010KT 11/10 A2988 RMK A01 T01110095  RH  090%=      5-min Rain = 0
KTAS 250813Z 24009KT 11/10 A2988 RMK A01 T01110095  RH  090%=      5-min Rain = 0
KTAS 250814Z 24009KT 11/10 A2988 RMK A01 T01110095  RH  090%=      5-min Rain = 0
KTAS 250815Z 23009KT 11/09 A2988 RMK A01 T01110094  RH  089%=      5-min Rain = 0
KTAS 250816Z 24009KT 11/10 A2988 RMK A01 T01110095  RH  090%=      5-min Rain = 0
KTAS 250817Z 23009KT 11/09 A2988 RMK A01 T01110094  RH  090%=      5-min Rain = 0
KTAS 250818Z 24010KT 11/09 A2988 RMK A01 T01110094  RH  090%=      5-min Rain = 0
KTAS 250819Z 24010KT 11/09 A2988 RMK A01 T01110094  RH  090%=      5-min Rain = 0
KTAS 250820Z 24009KT 11/09 A2988 RMK A01 T01110094  RH  089%=      5-min Rain = 0
KTAS 250821Z 24009KT 11/09 A2988 RMK A01 T01110094  RH  089%=      5-min Rain = 0
KTAS 250822Z 24009KT 11/09 A2988 RMK A01 T01110094  RH  089%=      5-min Rain = 0
KTAS 250823Z 24009KT 11/09 A2988 RMK A01 T01110094  RH  089%=      5-min Rain = 0
KTAS 250824Z 24009KT 11/09 A2988 RMK A01 T01110094  RH  089%=      5-min Rain = 0
KTAS 250825Z 24009KT 11/09 A2988 RMK A01 T01110094  RH  089%=      5-min Rain = 0
KTAS 250826Z 24009KT 11/09 A2988 RMK A01 T01100094  RH  089%=      5-min Rain = 0
KTAS 250827Z 24009KT 11/09 A2988 RMK A01 T01100093  RH  089%=      5-min Rain = 0
KTAS 250828Z 24009KT 11/09 A2988 RMK A01 T01100093  RH  089%=      5-min Rain = 0
KTAS 250829Z 24009KT 11/09 A2988 RMK A01 T01100093  RH  089%=      5-min Rain = 0
KTAS 250830Z 24008KT 11/09 A2988 RMK A01 T01100093  RH  089%=      5-min Rain = 0
KTAS 250831Z 24009KT 11/09 A2988 RMK A01 T01100093  RH  089%=      5-min Rain = 0
KTAS 250832Z 24009KT 11/09 A2988 RMK A01 T01100093  RH  089%=      5-min Rain = 0
KTAS 250833Z 24009KT 11/09 A2988 RMK A01 T01100093  RH  089%=      5-min Rain = 0
KTAS 250834Z 24009KT 11/09 A2988 RMK A01 T01100093  RH  089%=      5-min Rain = 0
KTAS 250835Z 24009KT 11/09 A2988 RMK A01 T01090092  RH  089%=      5-min Rain = 0
KTAS 250836Z 24009KT 11/09 A2988 RMK A01 T01090092  RH  089%=      5-min Rain = 0
KTAS 250837Z 24009KT 11/09 A2988 RMK A01 T01090092  RH  089%=      5-min Rain = 0
KTAS 250838Z 24008KT 11/09 A2988 RMK A01 T01090092  RH  089%=      5-min Rain = 0
KTAS 250839Z 24009KT 11/09 A2988 RMK A01 T01090091  RH  089%=      5-min Rain = 0
KTAS 250840Z 24008KT 11/09 A2988 RMK A01 T01090091  RH  089%=      5-min Rain = 0
KTAS 250841Z 24009KT 11/09 A2988 RMK A01 T01090091  RH  089%=      5-min Rain = 0
KTAS 250842Z 24009KT 11/09 A2988 RMK A01 T01090091  RH  089%=      5-min Rain = 0
KTAS 250843Z 24008KT 11/09 A2988 RMK A01 T01090091  RH  089%=      5-min Rain = 0
KTAS 250844Z 24009KT 11/09 A2988 RMK A01 T01090091  RH  089%=      5-min Rain = 0
KTAS 250845Z 24008KT 11/09 A2988 RMK A01 T01090091  RH  089%=      5-min Rain = 0
KTAS 250846Z 24008KT 11/09 A2988 RMK A01 T01090090  RH  088%=      5-min Rain = 0
KTAS 250847Z 24008KT 11/09 A2988 RMK A01 T01080090  RH  089%=      5-min Rain = 0
KTAS 250848Z 24008KT 11/09 A2988 RMK A01 T01080090  RH  089%=      5-min Rain = 0
KTAS 250849Z 24008KT 11/09 A2988 RMK A01 T01080090  RH  089%=      5-min Rain = 0
KTAS 250850Z 24008KT 11/09 A2988 RMK A01 T01080090  RH  089%=      5-min Rain = 0
KTAS 250851Z 24007KT 11/09 A2988 RMK A01 T01080090  RH  089%=      5-min Rain = 0
KTAS 250852Z 24008KT 11/09 A2988 RMK A01 T01070090  RH  089%=      5-min Rain = 0
KTAS 250853Z 24007KT 11/09 A2988 RMK A01 T01070090  RH  089%=      5-min Rain = 0
KTAS 250854Z 25007KT 11/09 A2988 RMK A01 T01070090  RH  089%=      5-min Rain = 0
KTAS 250855Z 24008KT 11/09 A2988 RMK A01 T01070090  RH  089%=      5-min Rain = 0
KTAS 250856Z 24008KT 11/09 A2988 RMK A01 T01080090  RH  089%=      5-min Rain = 0
KTAS 250857Z 25008KT 11/09 A2988 RMK A01 T01080090  RH  088%=      5-min Rain = 0
KTAS 250858Z 25007KT 11/09 A2988 RMK A01 T01080090  RH  088%=      5-min Rain = 0
KTAS 250859Z 25009KT 11/09 A2988 RMK A01 T01080090  RH  088%=      5-min Rain = 0
KTAS 250900Z 25008KT 11/09 A2988 RMK A01 T01080090  RH  088%=      5-min Rain = 0
KTAS 250901Z 25007KT 11/09 A2988 RMK A01 T01080089  RH  089%=      5-min Rain = 0
KTAS 250902Z 24008KT 11/09 A2988 RMK A01 T01070089  RH  089%=      5-min Rain = 0
KTAS 250903Z 24008KT 11/09 A2988 RMK A01 T01070090  RH  089%=      5-min Rain = 0
KTAS 250904Z 24007KT 11/09 A2988 RMK A01 T01070089  RH  089%=      5-min Rain = 0
KTAS 250905Z 24008KT 11/09 A2988 RMK A01 T01070089  RH  089%=      5-min Rain = 0
KTAS 250906Z 24007KT 11/09 A2988 RMK A01 T01070089  RH  089%=      5-min Rain = 0
KTAS 250907Z 24007KT 11/09 A2988 RMK A01 T01070089  RH  089%=      5-min Rain = 0
KTAS 250908Z 24007KT 11/09 A2988 RMK A01 T01060088  RH  089%=      5-min Rain = 0
KTAS 250909Z 24006KT 11/09 A2988 RMK A01 T01050088  RH  089%=      5-min Rain = 0
KTAS 250910Z 25006KT 10/09 A2988 RMK A01 T01040087  RH  089%=      5-min Rain = 0
KTAS 250911Z 24006KT 10/09 A2988 RMK A01 T01040087  RH  089%=      5-min Rain = 0
KTAS 250912Z 25006KT 10/09 A2988 RMK A01 T01040087  RH  089%=      5-min Rain = 0
KTAS 250913Z 24006KT 10/09 A2988 RMK A01 T01040087  RH  089%=      5-min Rain = 0
KTAS 250914Z 24006KT 10/09 A2988 RMK A01 T01030086  RH  089%=      5-min Rain = 0
KTAS 250915Z 23006KT 10/09 A2988 RMK A01 T01020086  RH  090%=      5-min Rain = 0
KTAS 250916Z 23006KT 10/09 A2988 RMK A01 T01020086  RH  090%=      5-min Rain = 0
KTAS 250917Z 23006KT 10/09 A2988 RMK A01 T01010086  RH  090%=      5-min Rain = 0
KTAS 250918Z 24006KT 10/09 A2988 RMK A01 T01010086  RH  090%=      5-min Rain = 0
KTAS 250919Z 25006KT 10/09 A2988 RMK A01 T01010086  RH  091%=      5-min Rain = 0
KTAS 250920Z 25006KT 10/09 A2988 RMK A01 T01010086  RH  091%=      5-min Rain = 0
KTAS 250921Z 25006KT 10/09 A2988 RMK A01 T01010086  RH  090%=      5-min Rain = 0
KTAS 250922Z 25006KT 10/09 A2988 RMK A01 T01010086  RH  090%=      5-min Rain = 0
KTAS 250923Z 25006KT 10/09 A2988 RMK A01 T01000085  RH  090%=      5-min Rain = 0
KTAS 250924Z 25006KT 10/09 A2988 RMK A01 T01000085  RH  091%=      5-min Rain = 0
KTAS 250925Z 25006KT 10/09 A2988 RMK A01 T01000085  RH  091%=      5-min Rain = 0
KTAS 250926Z 25006KT 10/09 A2988 RMK A01 T01000085  RH  091%=      5-min Rain = 0
KTAS 250927Z 25006KT 10/09 A2988 RMK A01 T01000086  RH  091%=      5-min Rain = 0
KTAS 250928Z 25006KT 10/09 A2989 RMK A01 T01000085  RH  091%=      5-min Rain = 0
KTAS 250929Z 25006KT 10/09 A2989 RMK A01 T01000085  RH  091%=      5-min Rain = 0
KTAS 250930Z 25006KT 10/09 A2988 RMK A01 T01000086  RH  091%=      5-min Rain = 0
KTAS 250931Z 25006KT 10/09 A2989 RMK A01 T01000086  RH  091%=      5-min Rain = 0
KTAS 250932Z 25005KT 10/09 A2989 RMK A01 T01000085  RH  090%=      5-min Rain = 0
KTAS 250933Z 25006KT 10/09 A2989 RMK A01 T01000085  RH  090%=      5-min Rain = 0
KTAS 250934Z 25006KT 10/09 A2989 RMK A01 T00990085  RH  091%=      5-min Rain = 0
KTAS 250935Z 25006KT 10/09 A2989 RMK A01 T01000085  RH  091%=      5-min Rain = 0
KTAS 250936Z 25006KT 10/09 A2989 RMK A01 T01000085  RH  091%=      5-min Rain = 0
KTAS 250937Z 25006KT 10/09 A2989 RMK A01 T01000085  RH  090%=      5-min Rain = 0
KTAS 250938Z 25007KT 10/09 A2989 RMK A01 T01000085  RH  090%=      5-min Rain = 0
KTAS 250939Z 25006KT 10/09 A2989 RMK A01 T01010086  RH  090%=      5-min Rain = 0
KTAS 250940Z 25006KT 10/09 A2989 RMK A01 T01010085  RH  090%=      5-min Rain = 0
KTAS 250941Z 25005KT 10/09 A2989 RMK A01 T01010085  RH  090%=      5-min Rain = 0
KTAS 250942Z 25006KT 10/09 A2989 RMK A01 T01010085  RH  090%=      5-min Rain = 0
KTAS 250943Z 25006KT 10/09 A2989 RMK A01 T01000085  RH  090%=      5-min Rain = 0
KTAS 250944Z 25006KT 10/09 A2989 RMK A01 T01000085  RH  090%=      5-min Rain = 0
KTAS 250945Z 26005KT 10/09 A2989 RMK A01 T01010085  RH  090%=      5-min Rain = 0
KTAS 250946Z 25006KT 10/09 A2989 RMK A01 T01010085  RH  090%=      5-min Rain = 0
KTAS 250947Z 25005KT 10/09 A2989 RMK A01 T01010085  RH  090%=      5-min Rain = 0
KTAS 250948Z 25005KT 10/09 A2989 RMK A01 T01010085  RH  090%=      5-min Rain = 0
KTAS 250949Z 25005KT 10/08 A2989 RMK A01 T01000084  RH  090%=      5-min Rain = 0
KTAS 250950Z 25005KT 10/08 A2989 RMK A01 T01000084  RH  090%=      5-min Rain = 0
KTAS 250951Z 26005KT 10/08 A2989 RMK A01 T01000084  RH  090%=      5-min Rain = 0
KTAS 250952Z 26004KT 10/08 A2989 RMK A01 T01000084  RH  090%=      5-min Rain = 0
KTAS 250953Z 26005KT 10/08 A2989 RMK A01 T01000084  RH  090%=      5-min Rain = 0
KTAS 250954Z 25004KT 10/08 A2989 RMK A01 T00990084  RH  090%=      5-min Rain = 0
KTAS 250955Z 26005KT 10/08 A2989 RMK A01 T00990083  RH  090%=      5-min Rain = 0
KTAS 250956Z 25005KT 10/08 A2989 RMK A01 T00990083  RH  090%=      5-min Rain = 0
KTAS 250957Z 25005KT 10/08 A2989 RMK A01 T00980083  RH  090%=      5-min Rain = 0
KTAS 250958Z 25005KT 10/08 A2989 RMK A01 T00980082  RH  090%=      5-min Rain = 0
KTAS 250959Z 25005KT 10/08 A2989 RMK A01 T00970081  RH  090%=      5-min Rain = 0
KTAS 251000Z 25005KT 10/08 A2989 RMK A01 T00960081  RH  091%=      5-min Rain = 0
KTAS 251001Z 25005KT 10/08 A2989 RMK A01 T00960082  RH  091%=      5-min Rain = 0
KTAS 251002Z 25005KT 10/08 A2989 RMK A01 T00960081  RH  091%=      5-min Rain = 0
KTAS 251003Z 24005KT 10/08 A2989 RMK A01 T00950081  RH  091%=      5-min Rain = 0
KTAS 251004Z 25005KT 10/08 A2989 RMK A01 T00950082  RH  091%=      5-min Rain = 0
KTAS 251005Z 24005KT 10/08 A2989 RMK A01 T00950082  RH  091%=      5-min Rain = 0
KTAS 251006Z 25005KT 10/08 A2989 RMK A01 T00950082  RH  091%=      5-min Rain = 0
KTAS 251007Z 24005KT 10/08 A2989 RMK A01 T00950082  RH  091%=      5-min Rain = 0
KTAS 251008Z 25005KT 10/08 A2989 RMK A01 T00950082  RH  091%=      5-min Rain = 0
KTAS 251009Z 25006KT 10/08 A2989 RMK A01 T00950082  RH  091%=      5-min Rain = 0
KTAS 251010Z 25006KT 10/08 A2989 RMK A01 T00950082  RH  091%=      5-min Rain = 0
KTAS 251011Z 25006KT 10/08 A2989 RMK A01 T00950082  RH  091%=      5-min Rain = 0
KTAS 251012Z 25006KT 10/08 A2989 RMK A01 T00950081  RH  091%=      5-min Rain = 0
KTAS 251013Z 25006KT 10/08 A2989 RMK A01 T00950082  RH  091%=      5-min Rain = 0
KTAS 251014Z 25006KT 10/08 A2989 RMK A01 T00950081  RH  091%=      5-min Rain = 0
KTAS 251015Z 26006KT 10/08 A2989 RMK A01 T00950082  RH  091%=      5-min Rain = 0
KTAS 251016Z 26006KT 10/08 A2989 RMK A01 T00960082  RH  091%=      5-min Rain = 0
KTAS 251017Z 25006KT 10/08 A2989 RMK A01 T00960083  RH  091%=      5-min Rain = 0
KTAS 251018Z 25007KT 10/08 A2989 RMK A01 T00970083  RH  091%=      5-min Rain = 0
KTAS 251019Z 25007KT 10/08 A2989 RMK A01 T00970083  RH  091%=      5-min Rain = 0
KTAS 251020Z 25006KT 10/08 A2989 RMK A01 T00970083  RH  091%=      5-min Rain = 0
KTAS 251021Z 25007KT 10/08 A2989 RMK A01 T00970083  RH  091%=      5-min Rain = 0
KTAS 251022Z 26006KT 10/08 A2989 RMK A01 T00970083  RH  091%=      5-min Rain = 0
KTAS 251023Z 25006KT 10/08 A2989 RMK A01 T00980083  RH  091%=      5-min Rain = 0
KTAS 251024Z 25007KT 10/08 A2989 RMK A01 T00980083  RH  091%=      5-min Rain = 0
KTAS 251025Z 25007KT 10/08 A2989 RMK A01 T00980083  RH  090%=      5-min Rain = 0
KTAS 251026Z 25007KT 10/08 A2989 RMK A01 T00980083  RH  090%=      5-min Rain = 0
KTAS 251027Z 25007KT 10/08 A2989 RMK A01 T00990084  RH  090%=      5-min Rain = 0
KTAS 251028Z 25007KT 10/08 A2989 RMK A01 T00990084  RH  090%=      5-min Rain = 0
KTAS 251029Z 25006KT 10/08 A2989 RMK A01 T00990084  RH  090%=      5-min Rain = 0
KTAS 251030Z 26007KT 10/08 A2989 RMK A01 T00990083  RH  090%=      5-min Rain = 0
KTAS 251031Z 25006KT 10/08 A2989 RMK A01 T00990084  RH  090%=      5-min Rain = 0
KTAS 251032Z 26007KT 10/08 A2989 RMK A01 T00990084  RH  090%=      5-min Rain = 0
KTAS 251033Z 26006KT 10/08 A2989 RMK A01 T00990084  RH  090%=      5-min Rain = 0
KTAS 251034Z 26006KT 10/08 A2989 RMK A01 T00990083  RH  090%=      5-min Rain = 0
KTAS 251035Z 26006KT 10/08 A2989 RMK A01 T00990083  RH  090%=      5-min Rain = 0
KTAS 251036Z 26007KT 10/08 A2989 RMK A01 T00990084  RH  090%=      5-min Rain = 0
KTAS 251037Z 26007KT 10/08 A2989 RMK A01 T00990084  RH  090%=      5-min Rain = 0
KTAS 251038Z 27007KT 10/08 A2989 RMK A01 T00990084  RH  090%=      5-min Rain = 0
KTAS 251039Z 26007KT 10/08 A2989 RMK A01 T00990084  RH  090%=      5-min Rain = 0
KTAS 251040Z 27008KT 10/08 A2989 RMK A01 T00990084  RH  090%=      5-min Rain = 0
KTAS 251041Z 26008KT 10/09 A2989 RMK A01 T01000085  RH  090%=      5-min Rain = 0
KTAS 251042Z 26008KT 10/09 A2989 RMK A01 T01000085  RH  090%=      5-min Rain = 0
KTAS 251043Z 26008KT 10/09 A2989 RMK A01 T01000085  RH  090%=      5-min Rain = 0
KTAS 251044Z 26008KT 10/09 A2989 RMK A01 T01010085  RH  090%=      5-min Rain = 0
KTAS 251045Z 26008KT 10/08 A2989 RMK A01 T01010084  RH  090%=      5-min Rain = 0
KTAS 251046Z 26007KT 10/09 A2989 RMK A01 T01010085  RH  090%=      5-min Rain = 0
KTAS 251047Z 26008KT 10/09 A2989 RMK A01 T01010085  RH  090%=      5-min Rain = 0
KTAS 251048Z 26008KT 10/09 A2989 RMK A01 T01010085  RH  089%=      5-min Rain = 0
KTAS 251049Z 27008KT 10/09 A2989 RMK A01 T01010085  RH  089%=      5-min Rain = 0
KTAS 251050Z 26009KT 10/09 A2989 RMK A01 T01020085  RH  089%=      5-min Rain = 0
KTAS 251051Z 26008KT 10/09 A2989 RMK A01 T01020085  RH  089%=      5-min Rain = 0
KTAS 251052Z 27008KT 10/09 A2989 RMK A01 T01020085  RH  089%=      5-min Rain = 0
KTAS 251053Z 26008KT 10/09 A2989 RMK A01 T01030086  RH  089%=      5-min Rain = 0
KTAS 251054Z 26008KT 10/09 A2989 RMK A01 T01030085  RH  089%=      5-min Rain = 0
KTAS 251055Z 27009KT 10/09 A2989 RMK A01 T01030085  RH  089%=      5-min Rain = 0
KTAS 251056Z 26008KT 10/09 A2989 RMK A01 T01030086  RH  089%=      5-min Rain = 0
KTAS 251057Z 26008KT 10/09 A2989 RMK A01 T01040086  RH  089%=      5-min Rain = 0
KTAS 251058Z 26008KT 10/09 A2989 RMK A01 T01040086  RH  089%=      5-min Rain = 0
KTAS 251059Z 26008KT 10/09 A2989 RMK A01 T01040086  RH  088%=      5-min Rain = 0
KTAS 251100Z 27008KT 11/09 A2989 RMK A01 T01050086  RH  088%=      5-min Rain = 0
KTAS 251101Z 27008KT 10/09 A2989 RMK A01 T01040086  RH  088%=      5-min Rain = 0
KTAS 251102Z 27008KT 10/09 A2989 RMK A01 T01040086  RH  089%=      5-min Rain = 0
KTAS 251103Z 27008KT 10/09 A2989 RMK A01 T01040086  RH  089%=      5-min Rain = 0
KTAS 251104Z 26009KT 10/09 A2989 RMK A01 T01040087  RH  089%=      5-min Rain = 0
KTAS 251105Z 27009KT 11/09 A2989 RMK A01 T01050087  RH  088%=      5-min Rain = 0
KTAS 251106Z 26008KT 11/09 A2989 RMK A01 T01050086  RH  088%=      5-min Rain = 0
KTAS 251107Z 26009KT 11/09 A2989 RMK A01 T01050086  RH  088%=      5-min Rain = 0
KTAS 251108Z 26009KT 11/09 A2989 RMK A01 T01050086  RH  088%=      5-min Rain = 0
KTAS 251109Z 26009KT 11/09 A2989 RMK A01 T01050086  RH  088%=      5-min Rain = 0
KTAS 251110Z 26009KT 11/09 A2989 RMK A01 T01050086  RH  088%=      5-min Rain = 0
KTAS 251111Z 26008KT 11/09 A2989 RMK A01 T01050086  RH  088%=      5-min Rain = 0
KTAS 251112Z 26009KT 10/09 A2989 RMK A01 T01040085  RH  088%=      5-min Rain = 0
KTAS 251113Z 26009KT 10/09 A2989 RMK A01 T01040086  RH  088%=      5-min Rain = 0
KTAS 251114Z 26007KT 10/09 A2989 RMK A01 T01040085  RH  088%=      5-min Rain = 0
KTAS 251115Z 26009KT 10/09 A2989 RMK A01 T01040085  RH  088%=      5-min Rain = 0
KTAS 251116Z 26008KT 10/09 A2989 RMK A01 T01040085  RH  088%=      5-min Rain = 0
KTAS 251117Z 26009KT 11/09 A2989 RMK A01 T01050085  RH  088%=      5-min Rain = 0
KTAS 251118Z 26009KT 11/09 A2989 RMK A01 T01050085  RH  088%=      5-min Rain = 0
KTAS 251119Z 26008KT 11/09 A2989 RMK A01 T01050085  RH  088%=      5-min Rain = 0
KTAS 251120Z 26008KT 10/09 A2989 RMK A01 T01040085  RH  088%=      5-min Rain = 0
KTAS 251121Z 26008KT 10/09 A2989 RMK A01 T01030085  RH  088%=      5-min Rain = 0
KTAS 251122Z 26007KT 10/09 A2989 RMK A01 T01030085  RH  088%=      5-min Rain = 0
KTAS 251123Z 26008KT 10/09 A2989 RMK A01 T01030085  RH  088%=      5-min Rain = 0
KTAS 251124Z 26007KT 10/08 A2989 RMK A01 T01020084  RH  089%=      5-min Rain = 0
KTAS 251125Z 26008KT 10/08 A2989 RMK A01 T01020084  RH  089%=      5-min Rain = 0
KTAS 251126Z 26008KT 10/08 A2989 RMK A01 T01020084  RH  089%=      5-min Rain = 0
KTAS 251127Z 26008KT 10/08 A2989 RMK A01 T01020084  RH  089%=      5-min Rain = 0
KTAS 251128Z 26007KT 10/08 A2989 RMK A01 T01020084  RH  089%=      5-min Rain = 0
KTAS 251129Z 26008KT 10/08 A2989 RMK A01 T01010084  RH  089%=      5-min Rain = 0
KTAS 251130Z 26008KT 10/08 A2989 RMK A01 T01010084  RH  089%=      5-min Rain = 0
KTAS 251131Z 27007KT 10/08 A2989 RMK A01 T01020084  RH  089%=      5-min Rain = 0
KTAS 251132Z 26008KT 10/08 A2989 RMK A01 T01010084  RH  089%=      5-min Rain = 0
KTAS 251133Z 27008KT 10/08 A299 RMK A01 T01010083  RH  089%=      5-min Rain = 0
KTAS 251134Z 27007KT 10/08 A299 RMK A01 T01010084  RH  089%=      5-min Rain = 0
KTAS 251135Z 27008KT 10/08 A299 RMK A01 T01000083  RH  089%=      5-min Rain = 0
KTAS 251136Z 26007KT 10/08 A299 RMK A01 T01000083  RH  089%=      5-min Rain = 0
KTAS 251137Z 26007KT 10/08 A2989 RMK A01 T01010083  RH  089%=      5-min Rain = 0
KTAS 251138Z 26007KT 10/08 A299 RMK A01 T01010083  RH  089%=      5-min Rain = 0
KTAS 251139Z 26007KT 10/08 A299 RMK A01 T01010083  RH  089%=      5-min Rain = 0
KTAS 251140Z 26007KT 10/08 A299 RMK A01 T01010083  RH  089%=      5-min Rain = 0
KTAS 251141Z 26007KT 10/08 A299 RMK A01 T01000083  RH  089%=      5-min Rain = 0
KTAS 251142Z 26006KT 10/08 A299 RMK A01 T01000083  RH  089%=      5-min Rain = 0
KTAS 251143Z 26007KT 10/08 A299 RMK A01 T01000082  RH  089%=      5-min Rain = 0
KTAS 251144Z 26006KT 10/08 A299 RMK A01 T00990082  RH  089%=      5-min Rain = 0
KTAS 251145Z 26006KT 10/08 A299 RMK A01 T00990082  RH  089%=      5-min Rain = 0
KTAS 251146Z 26006KT 10/08 A299 RMK A01 T00990082  RH  089%=      5-min Rain = 0
KTAS 251147Z 26007KT 10/08 A299 RMK A01 T00990082  RH  089%=      5-min Rain = 0
KTAS 251148Z 26007KT 10/08 A299 RMK A01 T00990082  RH  089%=      5-min Rain = 0
KTAS 251149Z 26007KT 10/08 A299 RMK A01 T00990082  RH  089%=      5-min Rain = 0
KTAS 251150Z 26007KT 10/08 A299 RMK A01 T00990082  RH  089%=      5-min Rain = 0
KTAS 251151Z 27007KT 10/08 A299 RMK A01 T00980082  RH  089%=      5-min Rain = 0
KTAS 251152Z 27007KT 10/08 A299 RMK A01 T00970081  RH  090%=      5-min Rain = 0
KTAS 251153Z 26006KT 10/08 A299 RMK A01 T00970081  RH  090%=      5-min Rain = 0
KTAS 251154Z 27006KT 10/08 A299 RMK A01 T00970081  RH  090%=      5-min Rain = 0
KTAS 251155Z 26006KT 10/08 A299 RMK A01 T00970081  RH  090%=      5-min Rain = 0
KTAS 251156Z 27006KT 10/08 A299 RMK A01 T00970081  RH  090%=      5-min Rain = 0
KTAS 251157Z 27005KT 10/08 A299 RMK A01 T00960080  RH  090%=      5-min Rain = 0
KTAS 251158Z 27005KT 10/08 A299 RMK A01 T00960080  RH  090%=      5-min Rain = 0
KTAS 251159Z 27005KT 10/08 A299 RMK A01 T00950080  RH  090%=      5-min Rain = 0
KTAS 251200Z 27006KT 10/08 A299 RMK A01 T00950080  RH  090%=      5-min Rain = 0
KTAS 251201Z 27006KT 10/08 A299 RMK A01 T00950080  RH  090%=      5-min Rain = 0
KTAS 251202Z 27005KT 10/08 A299 RMK A01 T00950079  RH  090%=      5-min Rain = 0
KTAS 251203Z 27006KT 10/08 A2991 RMK A01 T00950080  RH  090%=      5-min Rain = 0
KTAS 251204Z 27006KT 10/08 A299 RMK A01 T00960080  RH  090%=      5-min Rain = 0
KTAS 251205Z 27005KT 10/08 A2991 RMK A01 T00960080  RH  090%=      5-min Rain = 0
KTAS 251206Z 27006KT 10/08 A2991 RMK A01 T00960080  RH  090%=      5-min Rain = 0
KTAS 251207Z 27006KT 10/08 A2991 RMK A01 T00960079  RH  089%=      5-min Rain = 0
KTAS 251208Z 27006KT 10/08 A2991 RMK A01 T00970080  RH  089%=      5-min Rain = 0
KTAS 251209Z 27006KT 10/08 A2991 RMK A01 T00970080  RH  089%=      5-min Rain = 0
KTAS 251210Z 27006KT 10/08 A2991 RMK A01 T00970080  RH  089%=      5-min Rain = 0
KTAS 251211Z 27006KT 10/08 A2991 RMK A01 T00970080  RH  089%=      5-min Rain = 0
KTAS 251212Z 27006KT 10/08 A2991 RMK A01 T00970080  RH  089%=      5-min Rain = 0
KTAS 251213Z 26006KT 10/08 A2991 RMK A01 T00970080  RH  089%=      5-min Rain = 0
KTAS 251214Z 27006KT 10/08 A2991 RMK A01 T00970080  RH  089%=      5-min Rain = 0
KTAS 251215Z 27006KT 10/08 A2991 RMK A01 T00970080  RH  089%=      5-min Rain = 0
KTAS 251216Z 27007KT 10/08 A2991 RMK A01 T00970080  RH  089%=      5-min Rain = 0
KTAS 251217Z 26006KT 10/08 A2991 RMK A01 T00980081  RH  089%=      5-min Rain = 0
KTAS 251218Z 27006KT 10/08 A2991 RMK A01 T00990081  RH  088%=      5-min Rain = 0
KTAS 251219Z 27005KT 10/08 A2991 RMK A01 T01000081  RH  088%=      5-min Rain = 0
KTAS 251220Z 27006KT 10/08 A2991 RMK A01 T01000081  RH  088%=      5-min Rain = 0
KTAS 251221Z 27005KT 10/08 A2991 RMK A01 T01000081  RH  088%=      5-min Rain = 0
KTAS 251222Z 27005KT 10/08 A2991 RMK A01 T01000081  RH  088%=      5-min Rain = 0
KTAS 251223Z 27005KT 10/08 A2991 RMK A01 T01000081  RH  088%=      5-min Rain = 0
KTAS 251224Z 27006KT 10/08 A2991 RMK A01 T01010081  RH  088%=      5-min Rain = 0
KTAS 251225Z 27006KT 10/08 A2991 RMK A01 T01010081  RH  088%=      5-min Rain = 0
KTAS 251226Z 28006KT 10/08 A2991 RMK A01 T01020082  RH  087%=      5-min Rain = 0
KTAS 251227Z 27006KT 10/08 A2991 RMK A01 T01020082  RH  087%=      5-min Rain = 0
KTAS 251228Z 27006KT 10/08 A2991 RMK A01 T01020082  RH  087%=      5-min Rain = 0
KTAS 251229Z 27007KT 10/08 A2991 RMK A01 T01030082  RH  087%=      5-min Rain = 0
KTAS 251230Z 27007KT 10/08 A2991 RMK A01 T01030082  RH  087%=      5-min Rain = 0
KTAS 251231Z 28007KT 10/08 A2991 RMK A01 T01040082  RH  087%=      5-min Rain = 0
KTAS 251232Z 28007KT 10/08 A2991 RMK A01 T01040082  RH  086%=      5-min Rain = 0
KTAS 251233Z 27007KT 11/08 A2991 RMK A01 T01050083  RH  086%=      5-min Rain = 0
KTAS 251234Z 27008KT 11/08 A2991 RMK A01 T01050083  RH  086%=      5-min Rain = 0
KTAS 251235Z 28007KT 11/08 A2991 RMK A01 T01060083  RH  086%=      5-min Rain = 0
KTAS 251236Z 27006KT 11/08 A2991 RMK A01 T01060083  RH  086%=      5-min Rain = 0
KTAS 251237Z 27007KT 11/08 A2991 RMK A01 T01060083  RH  086%=      5-min Rain = 0
KTAS 251238Z 28007KT 11/08 A2991 RMK A01 T01060083  RH  086%=      5-min Rain = 0
KTAS 251239Z 27006KT 11/08 A2992 RMK A01 T01060083  RH  086%=      5-min Rain = 0
KTAS 251240Z 27007KT 11/08 A2992 RMK A01 T01070084  RH  086%=      5-min Rain = 0
KTAS 251241Z 27007KT 11/08 A2992 RMK A01 T01070084  RH  085%=      5-min Rain = 0
KTAS 251242Z 27006KT 11/08 A2992 RMK A01 T01070084  RH  085%=      5-min Rain = 0
KTAS 251243Z 27006KT 11/09 A2992 RMK A01 T01080085  RH  086%=      5-min Rain = 0
KTAS 251244Z 27006KT 11/09 A2992 RMK A01 T01080085  RH  086%=      5-min Rain = 0
KTAS 251245Z 27006KT 11/09 A2992 RMK A01 T01080085  RH  086%=      5-min Rain = 0
KTAS 251246Z 28006KT 11/09 A2992 RMK A01 T01080085  RH  085%=      5-min Rain = 0
KTAS 251247Z 27006KT 11/09 A2992 RMK A01 T01090085  RH  085%=      5-min Rain = 0
KTAS 251248Z 27006KT 11/09 A2992 RMK A01 T01100085  RH  085%=      5-min Rain = 0
KTAS 251249Z 27005KT 11/09 A2992 RMK A01 T01100086  RH  085%=      5-min Rain = 0
KTAS 251250Z 27006KT 11/09 A2992 RMK A01 T01110086  RH  085%=      5-min Rain = 0
KTAS 251251Z 27006KT 11/09 A2992 RMK A01 T01110086  RH  085%=      5-min Rain = 0
KTAS 251252Z 27006KT 11/09 A2992 RMK A01 T01120087  RH  084%=      5-min Rain = 0
KTAS 251253Z 27005KT 11/09 A2992 RMK A01 T01120087  RH  084%=      5-min Rain = 0
KTAS 251254Z 27006KT 11/09 A2992 RMK A01 T01130088  RH  084%=      5-min Rain = 0
KTAS 251255Z 28005KT 11/09 A2992 RMK A01 T01130087  RH  084%=      5-min Rain = 0
KTAS 251256Z 28007KT 11/09 A2992 RMK A01 T01140088  RH  084%=      5-min Rain = 0
KTAS 251257Z 27006KT 11/09 A2992 RMK A01 T01140088  RH  084%=      5-min Rain = 0
KTAS 251258Z 28006KT 12/09 A2992 RMK A01 T01150088  RH  084%=      5-min Rain = 0
KTAS 251259Z 28006KT 12/09 A2992 RMK A01 T01150088  RH  084%=      5-min Rain = 0
KTAS 251300Z 28006KT 12/09 A2992 RMK A01 T01160088  RH  083%=      5-min Rain = 0
KTAS 251301Z 28005KT 12/09 A2992 RMK A01 T01160089  RH  083%=      5-min Rain = 0
KTAS 251302Z 28006KT 12/09 A2992 RMK A01 T01160089  RH  083%=      5-min Rain = 0
KTAS 251303Z 28005KT 12/09 A2992 RMK A01 T01170089  RH  083%=      5-min Rain = 0
KTAS 251304Z 27006KT 12/09 A2992 RMK A01 T01170089  RH  083%=      5-min Rain = 0
KTAS 251305Z 28005KT 12/09 A2992 RMK A01 T01180091  RH  083%=      5-min Rain = 0
KTAS 251306Z 27006KT 12/09 A2992 RMK A01 T01190090  RH  083%=      5-min Rain = 0
KTAS 251307Z 27005KT 12/09 A2992 RMK A01 T01190090  RH  082%=      5-min Rain = 0
KTAS 251308Z 27004KT 12/09 A2992 RMK A01 T01200090  RH  082%=      5-min Rain = 0
KTAS 251309Z 27004KT 12/09 A2992 RMK A01 T01200092  RH  083%=      5-min Rain = 0
KTAS 251310Z 27005KT 12/09 A2992 RMK A01 T01200091  RH  082%=      5-min Rain = 0
KTAS 251311Z 27005KT 12/09 A2993 RMK A01 T01210091  RH  082%=      5-min Rain = 0
KTAS 251312Z 27005KT 12/09 A2993 RMK A01 T01220090  RH  081%=      5-min Rain = 0
KTAS 251313Z 27005KT 12/09 A2993 RMK A01 T01220091  RH  081%=      5-min Rain = 0
KTAS 251314Z 27005KT 12/09 A2993 RMK A01 T01230093  RH  082%=      5-min Rain = 0
KTAS 251315Z 26005KT 12/09 A2993 RMK A01 T01240092  RH  081%=      5-min Rain = 0
KTAS 251316Z 27005KT 12/09 A2993 RMK A01 T01240092  RH  081%=      5-min Rain = 0
KTAS 251317Z 26004KT 13/09 A2993 RMK A01 T01250092  RH  081%=      5-min Rain = 0
KTAS 251318Z 25005KT 13/09 A2993 RMK A01 T01250093  RH  081%=      5-min Rain = 0
KTAS 251319Z 26005KT 13/09 A2993 RMK A01 T01260092  RH  080%=      5-min Rain = 0
KTAS 251320Z 25004KT 13/09 A2993 RMK A01 T01260092  RH  080%=      5-min Rain = 0
KTAS 251321Z 26006KT 13/09 A2993 RMK A01 T01270092  RH  080%=      5-min Rain = 0
KTAS 251322Z 26005KT 13/09 A2993 RMK A01 T01270093  RH  079%=      5-min Rain = 0
KTAS 251323Z 27005KT 13/09 A2993 RMK A01 T01280093  RH  079%=      5-min Rain = 0
KTAS 251324Z 27006KT 13/09 A2993 RMK A01 T01280094  RH  080%=      5-min Rain = 0
KTAS 251325Z 27006KT 13/09 A2993 RMK A01 T01280092  RH  079%=      5-min Rain = 0
KTAS 251326Z 27006KT 13/09 A2993 RMK A01 T01280093  RH  079%=      5-min Rain = 0
KTAS 251327Z 28007KT 13/09 A2993 RMK A01 T01280092  RH  079%=      5-min Rain = 0
KTAS 251328Z 28007KT 13/09 A2993 RMK A01 T01280093  RH  079%=      5-min Rain = 0
KTAS 251329Z 28007KT 13/10 A2993 RMK A01 T01290095  RH  080%=      5-min Rain = 0
KTAS 251330Z 28006KT 13/10 A2993 RMK A01 T01290095  RH  080%=      5-min Rain = 0
KTAS 251331Z 28007KT 13/10 A2993 RMK A01 T01300096  RH  080%=      5-min Rain = 0
KTAS 251332Z 28008KT 13/10 A2993 RMK A01 T01300096  RH  080%=      5-min Rain = 0
KTAS 251333Z 28007KT 13/10 A2993 RMK A01 T01300096  RH  080%=      5-min Rain = 0
KTAS 251334Z 28005KT 13/10 A2993 RMK A01 T01310098  RH  080%=      5-min Rain = 0
KTAS 251335Z 27006KT 13/10 A2993 RMK A01 T01320098  RH  080%=      5-min Rain = 0
KTAS 251336Z 28006KT 13/10 A2993 RMK A01 T01320098  RH  079%=      5-min Rain = 0
KTAS 251337Z 28007KT 13/10 A2993 RMK A01 T01330098  RH  079%=      5-min Rain = 0
KTAS 251338Z 27006KT 13/10 A2993 RMK A01 T01330099  RH  080%=      5-min Rain = 0
KTAS 251339Z 27007KT 13/10 A2993 RMK A01 T01340099  RH  079%=      5-min Rain = 0
KTAS 251340Z 27007KT 14/10 A2993 RMK A01 T01350098  RH  079%=      5-min Rain = 0
KTAS 251341Z 26007KT 14/10 A2993 RMK A01 T01360100  RH  079%=      5-min Rain = 0
KTAS 251342Z 26007KT 14/10 A2993 RMK A01 T01370102  RH  079%=      5-min Rain = 0
KTAS 251343Z 27007KT 14/10 A2993 RMK A01 T01380101  RH  078%=      5-min Rain = 0
KTAS 251344Z 26007KT 14/10 A2993 RMK A01 T01390101  RH  078%=      5-min Rain = 0
KTAS 251345Z 26007KT 14/10 A2993 RMK A01 T01400101  RH  077%=      5-min Rain = 0
KTAS 251346Z 26006KT 14/10 A2993 RMK A01 T01410101  RH  077%=      5-min Rain = 0
KTAS 251347Z 27007KT 14/10 A2993 RMK A01 T01410098  RH  076%=      5-min Rain = 0
KTAS 251348Z 27006KT 14/10 A2994 RMK A01 T01410100  RH  076%=      5-min Rain = 0
KTAS 251349Z 27006KT 14/10 A2994 RMK A01 T01420102  RH  077%=      5-min Rain = 0
KTAS 251350Z 27006KT 14/10 A2994 RMK A01 T01430102  RH  076%=      5-min Rain = 0
KTAS 251351Z 27006KT 14/10 A2994 RMK A01 T01440103  RH  076%=      5-min Rain = 0
KTAS 251352Z 28006KT 15/10 A2994 RMK A01 T01450104  RH  077%=      5-min Rain = 0
KTAS 251353Z 27006KT 15/10 A2994 RMK A01 T01450102  RH  076%=      5-min Rain = 0
KTAS 251354Z 28006KT 15/11 A2994 RMK A01 T01460108  RH  078%=      5-min Rain = 0
KTAS 251355Z 28007KT 15/11 A2994 RMK A01 T01470106  RH  076%=      5-min Rain = 0
KTAS 251356Z 28006KT 15/10 A2994 RMK A01 T01480104  RH  075%=      5-min Rain = 0
KTAS 251357Z 28007KT 15/11 A2994 RMK A01 T01490107  RH  076%=      5-min Rain = 0
KTAS 251358Z 28007KT 15/11 A2994 RMK A01 T01490107  RH  076%=      5-min Rain = 0
KTAS 251359Z 28006KT 15/11 A2994 RMK A01 T01500107  RH  075%=      5-min Rain = 0
KTAS 251400Z 27006KT 15/11 A2994 RMK A01 T01520110  RH  076%=      5-min Rain = 0
KTAS 251401Z 28009KT 15/11 A2994 RMK A01 T01520107  RH  074%=      5-min Rain = 0
KTAS 251402Z 27008KT 15/11 A2994 RMK A01 T01520108  RH  074%=      5-min Rain = 0
KTAS 251403Z 27008KT 15/11 A2994 RMK A01 T01530107  RH  074%=      5-min Rain = 0
KTAS 251404Z 27007KT 15/11 A2994 RMK A01 T01530107  RH  074%=      5-min Rain = 0
KTAS 251405Z 27006KT 16/11 A2994 RMK A01 T01550111  RH  075%=      5-min Rain = 0
KTAS 251406Z 27009KT 16/11 A2994 RMK A01 T01560110  RH  074%=      5-min Rain = 0
KTAS 251407Z 27008KT 16/11 A2994 RMK A01 T01570108  RH  073%=      5-min Rain = 0
KTAS 251408Z 28008KT 16/11 A2994 RMK A01 T01570108  RH  073%=      5-min Rain = 0
KTAS 251409Z 28008KT 16/11 A2994 RMK A01 T01580109  RH  073%=      5-min Rain = 0
KTAS 251410Z 27008KT 16/11 A2994 RMK A01 T01580108  RH  072%=      5-min Rain = 0
KTAS 251411Z 27008KT 16/11 A2994 RMK A01 T01590109  RH  072%=      5-min Rain = 0
KTAS 251412Z 27008KT 16/11 A2994 RMK A01 T01600110  RH  072%=      5-min Rain = 0
KTAS 251413Z 27009KT 16/11 A2994 RMK A01 T01600109  RH  071%=      5-min Rain = 0
KTAS 251414Z 27007KT 16/11 A2994 RMK A01 T01610111  RH  072%=      5-min Rain = 0
KTAS 251415Z 27008KT 16/11 A2994 RMK A01 T01620111  RH  072%=      5-min Rain = 0
KTAS 251416Z 28009KT 16/11 A2994 RMK A01 T01620110  RH  071%=      5-min Rain = 0
KTAS 251417Z 28010KT 16/11 A2994 RMK A01 T01620109  RH  071%=      5-min Rain = 0
KTAS 251418Z 28008KT 16/11 A2994 RMK A01 T01620109  RH  071%=      5-min Rain = 0
KTAS 251419Z 28008KT 16/11 A2994 RMK A01 T01620110  RH  071%=      5-min Rain = 0
KTAS 251420Z 28008KT 16/11 A2994 RMK A01 T01630110  RH  071%=      5-min Rain = 0
KTAS 251421Z 29007KT 16/11 A2994 RMK A01 T01640113  RH  072%=      5-min Rain = 0
KTAS 251422Z 28010KT 16/11 A2994 RMK A01 T01640110  RH  070%=      5-min Rain = 0
KTAS 251423Z 28010KT 16/11 A2994 RMK A01 T01640109  RH  070%=      5-min Rain = 0
KTAS 251424Z 27009KT 16/11 A2994 RMK A01 T01640110  RH  070%=      5-min Rain = 0
KTAS 251425Z 27007KT 17/11 A2994 RMK A01 T01650113  RH  071%=      5-min Rain = 0
KTAS 251426Z 28007KT 17/11 A2994 RMK A01 T01660114  RH  071%=      5-min Rain = 0
KTAS 251427Z 29008KT 17/11 A2994 RMK A01 T01680114  RH  071%=      5-min Rain = 0
KTAS 251428Z 29009KT 17/11 A2994 RMK A01 T01680112  RH  070%=      5-min Rain = 0
KTAS 251429Z 28008KT 17/11 A2994 RMK A01 T01680111  RH  069%=      5-min Rain = 0
KTAS 251430Z 28009KT 17/11 A2994 RMK A01 T01680111  RH  069%=      5-min Rain = 0
KTAS 251431Z 28009KT 17/11 A2994 RMK A01 T01680110  RH  068%=      5-min Rain = 0
KTAS 251432Z 28008KT 17/11 A2994 RMK A01 T01700114  RH  069%=      5-min Rain = 0
KTAS 251433Z 29008KT 17/11 A2994 RMK A01 T01710113  RH  069%=      5-min Rain = 0
KTAS 251434Z 29009KT 17/11 A2994 RMK A01 T01720113  RH  069%=      5-min Rain = 0
KTAS 251435Z 29009KT 17/11 A2994 RMK A01 T01720113  RH  069%=      5-min Rain = 0
KTAS 251436Z 28009KT 17/11 A2994 RMK A01 T01720113  RH  068%=      5-min Rain = 0
KTAS 251437Z 28009KT 17/11 A2994 RMK A01 T01720111  RH  067%=      5-min Rain = 0
KTAS 251438Z 28009KT 17/11 A2994 RMK A01 T01730114  RH  068%=      5-min Rain = 0
KTAS 251439Z 28007KT 18/12 A2995 RMK A01 T01750116  RH  068%=      5-min Rain = 0
KTAS 251440Z 28009KT 18/12 A2995 RMK A01 T01760115  RH  067%=      5-min Rain = 0
KTAS 251441Z 29009KT 18/11 A2995 RMK A01 T01760112  RH  066%=      5-min Rain = 0
KTAS 251442Z 27007KT 18/12 A2995 RMK A01 T01770116  RH  067%=      5-min Rain = 0
KTAS 251443Z 28009KT 18/11 A2995 RMK A01 T01780112  RH  065%=      5-min Rain = 0
KTAS 251444Z 28009KT 18/11 A2995 RMK A01 T01780113  RH  066%=      5-min Rain = 0
KTAS 251445Z 28007KT 18/11 A2995 RMK A01 T01790114  RH  066%=      5-min Rain = 0
KTAS 251446Z 28009KT 18/11 A2995 RMK A01 T01800114  RH  066%=      5-min Rain = 0
KTAS 251447Z 29011KT 18/11 A2995 RMK A01 T01800114  RH  065%=      5-min Rain = 0
KTAS 251448Z 29011KT 18/11 A2995 RMK A01 T01810112  RH  064%=      5-min Rain = 0
KTAS 251449Z 29010KT 18/11 A2995 RMK A01 T01810113  RH  064%=      5-min Rain = 0
KTAS 251450Z 29009KT 18/11 A2995 RMK A01 T01810113  RH  065%=      5-min Rain = 0
KTAS 251451Z 29009KT 18/12 A2995 RMK A01 T01810115  RH  065%=      5-min Rain = 0
KTAS 251452Z 29009KT 18/12 A2995 RMK A01 T01820115  RH  065%=      5-min Rain = 0
KTAS 251453Z 28009KT 18/12 A2995 RMK A01 T01830117  RH  065%=      5-min Rain = 0
KTAS 251454Z 29007KT 19/12 A2995 RMK A01 T01850119  RH  066%=      5-min Rain = 0
KTAS 251455Z 29009KT 19/12 A2995 RMK A01 T01860119  RH  065%=      5-min Rain = 0
KTAS 251456Z 28009KT 19/12 A2995 RMK A01 T01870119  RH  064%=      5-min Rain = 0
KTAS 251457Z 29010KT 19/12 A2995 RMK A01 T01870117  RH  064%=      5-min Rain = 0
KTAS 251458Z 28008KT 19/12 A2994 RMK A01 T01870117  RH  064%=      5-min Rain = 0
KTAS 251459Z 29010KT 19/12 A2994 RMK A01 T01880117  RH  063%=      5-min Rain = 0
KTAS 251500Z 28011KT 19/11 A2994 RMK A01 T01880112  RH  061%=      5-min Rain = 0
KTAS 251501Z 28010KT 19/11 A2994 RMK A01 T01880114  RH  062%=      5-min Rain = 0
KTAS 251502Z 27009KT 19/12 A2994 RMK A01 T01900116  RH  062%=      5-min Rain = 0
KTAS 251503Z 28009KT 19/11 A2994 RMK A01 T01900113  RH  061%=      5-min Rain = 0
KTAS 251504Z 27009KT 19/12 A2994 RMK A01 T01910115  RH  061%=      5-min Rain = 0
KTAS 251505Z 28010KT 19/11 A2994 RMK A01 T01920114  RH  060%=      5-min Rain = 0
KTAS 251506Z 28010KT 19/11 A2994 RMK A01 T01910113  RH  061%=      5-min Rain = 0
KTAS 251507Z 28009KT 19/11 A2994 RMK A01 T01910111  RH  060%=      5-min Rain = 0
KTAS 251508Z 28009KT 19/12 A2994 RMK A01 T01920116  RH  061%=      5-min Rain = 0
KTAS 251509Z 27008KT 20/12 A2994 RMK A01 T01950118  RH  061%=      5-min Rain = 0
KTAS 251510Z 28010KT 20/11 A2994 RMK A01 T01970114  RH  059%=      5-min Rain = 0
KTAS 251511Z 27009KT 20/11 A2994 RMK A01 T01980113  RH  058%=      5-min Rain = 0
KTAS 251512Z 27009KT 20/12 A2994 RMK A01 T01990115  RH  058%=      5-min Rain = 0
KTAS 251513Z 27010KT 20/11 A2994 RMK A01 T01990113  RH  058%=      5-min Rain = 0
KTAS 251514Z 28011KT 20/11 A2994 RMK A01 T01980112  RH  057%=      5-min Rain = 0
KTAS 251515Z 27009KT 20/11 A2994 RMK A01 T01990112  RH  057%=      5-min Rain = 0
KTAS 251516Z 27009KT 20/11 A2994 RMK A01 T01990111  RH  057%=      5-min Rain = 0
KTAS 251517Z 28008KT 20/12 A2994 RMK A01 T02000115  RH  058%=      5-min Rain = 0
KTAS 251518Z 28010KT 20/11 A2994 RMK A01 T02010113  RH  057%=      5-min Rain = 0
KTAS 251519Z 28011KT 20/11 A2995 RMK A01 T02020113  RH  056%=      5-min Rain = 0
KTAS 251520Z 27010KT 20/11 A2995 RMK A01 T02030112  RH  056%=      5-min Rain = 0
KTAS 251521Z 28009KT 20/11 A2995 RMK A01 T02040113  RH  056%=      5-min Rain = 0
KTAS 251522Z 28009KT 21/12 A2995 RMK A01 T02060117  RH  056%=      5-min Rain = 0
KTAS 251523Z 28009KT 21/12 A2995 RMK A01 T02090118  RH  056%=      5-min Rain = 0
KTAS 251524Z 27009KT 21/12 A2995 RMK A01 T02100120  RH  056%=      5-min Rain = 0
KTAS 251525Z 27010KT 21/12 A2995 RMK A01 T02110115  RH  054%=      5-min Rain = 0
KTAS 251526Z 28009KT 21/12 A2995 RMK A01 T02100115  RH  054%=      5-min Rain = 0
KTAS 251527Z 27009KT 21/12 A2995 RMK A01 T02120119  RH  055%=      5-min Rain = 0
KTAS 251528Z 28011KT 21/12 A2995 RMK A01 T02120115  RH  054%=      5-min Rain = 0
KTAS 251529Z 27009KT 21/12 A2995 RMK A01 T02120115  RH  054%=      5-min Rain = 0
KTAS 251530Z 27010KT 21/12 A2995 RMK A01 T02140116  RH  054%=      5-min Rain = 0
KTAS 251531Z 27008KT 22/12 A2995 RMK A01 T02150117  RH  054%=      5-min Rain = 0
KTAS 251532Z 27008KT 22/12 A2995 RMK A01 T02170121  RH  054%=      5-min Rain = 0
KTAS 251533Z 28011KT 22/12 A2995 RMK A01 T02180118  RH  053%=      5-min Rain = 0
KTAS 251534Z 28010KT 22/12 A2995 RMK A01 T02180116  RH  052%=      5-min Rain = 0
KTAS 251535Z 27009KT 22/12 A2995 RMK A01 T02170115  RH  052%=      5-min Rain = 0
KTAS 251536Z 28008KT 22/12 A2995 RMK A01 T02180118  RH  053%=      5-min Rain = 0
KTAS 251537Z 29008KT 22/13 A2995 RMK A01 T02210125  RH  054%=      5-min Rain = 0
KTAS 251538Z 29009KT 22/12 A2995 RMK A01 T02230121  RH  052%=      5-min Rain = 0
KTAS 251539Z 28008KT 22/12 A2995 RMK A01 T02220118  RH  052%=      5-min Rain = 0
KTAS 251540Z 29009KT 22/12 A2995 RMK A01 T02220119  RH  052%=      5-min Rain = 0
KTAS 251541Z 28009KT 22/12 A2995 RMK A01 T02210117  RH  052%=      5-min Rain = 0
KTAS 251542Z 28008KT 22/12 A2995 RMK A01 T02210116  RH  051%=      5-min Rain = 0
KTAS 251543Z 29008KT 22/12 A2995 RMK A01 T02230121  RH  053%=      5-min Rain = 0
KTAS 251544Z 29009KT 22/12 A2995 RMK A01 T02240117  RH  051%=      5-min Rain = 0
KTAS 251545Z 28010KT 22/12 A2995 RMK A01 T02230117  RH  051%=      5-min Rain = 0
KTAS 251546Z 29008KT 22/11 A2995 RMK A01 T02230113  RH  050%=      5-min Rain = 0
KTAS 251547Z 28009KT 22/12 A2995 RMK A01 T02230116  RH  051%=      5-min Rain = 0
KTAS 251548Z 29008KT 22/12 A2995 RMK A01 T02240121  RH  052%=      5-min Rain = 0
KTAS 251549Z 29007KT 23/13 A2995 RMK A01 T02250125  RH  053%=      5-min Rain = 0
KTAS 251550Z 28008KT 23/12 A2995 RMK A01 T02270122  RH  051%=      5-min Rain = 0
KTAS 251551Z 29007KT 23/12 A2995 RMK A01 T02260119  RH  051%=      5-min Rain = 0
KTAS 251552Z 30008KT 23/12 A2995 RMK A01 T02270119  RH  051%=      5-min Rain = 0
KTAS 251553Z 30007KT 23/12 A2995 RMK A01 T02290121  RH  050%=      5-min Rain = 0
KTAS 251554Z 29007KT 23/12 A2995 RMK A01 T02300124  RH  051%=      5-min Rain = 0
KTAS 251555Z 30010KT 23/12 A2995 RMK A01 T02290115  RH  049%=      5-min Rain = 0
KTAS 251556Z 30011KT 23/11 A2995 RMK A01 T02300114  RH  048%=      5-min Rain = 0
KTAS 251557Z 29009KT 23/11 A2995 RMK A01 T02290108  RH  046%=      5-min Rain = 0
KTAS 251558Z 29008KT 23/11 A2996 RMK A01 T02290114  RH  048%=      5-min Rain = 0
KTAS 251559Z 30009KT 23/12 A2996 RMK A01 T02300115  RH  048%=      5-min Rain = 0
KTAS 251600Z 29010KT 23/11 A2996 RMK A01 T02290109  RH  047%=      5-min Rain = 0
KTAS 251601Z 29009KT 23/11 A2996 RMK A01 T02290108  RH  046%=      5-min Rain = 0
KTAS 251602Z 28009KT 23/12 A2996 RMK A01 T02300117  RH  049%=      5-min Rain = 0
KTAS 251603Z 29010KT 23/11 A2996 RMK A01 T02310113  RH  047%=      5-min Rain = 0
KTAS 251604Z 30010KT 23/11 A2996 RMK A01 T02310112  RH  047%=      5-min Rain = 0
KTAS 251605Z 29010KT 23/11 A2996 RMK A01 T02320110  RH  046%=      5-min Rain = 0
KTAS 251606Z 29013KT 23/10 A2996 RMK A01 T02330101  RH  043%=      5-min Rain = 0
KTAS 251607Z 29012KT 23/10 A2996 RMK A01 T02320099  RH  043%=      5-min Rain = 0
KTAS 251608Z 29010KT 23/10 A2996 RMK A01 T02310103  RH  044%=      5-min Rain = 0
KTAS 251609Z 28011KT 23/11 A2996 RMK A01 T02320105  RH  045%=      5-min Rain = 0
KTAS 251610Z 29010KT 23/10 A2996 RMK A01 T02320104  RH  044%=      5-min Rain = 0
KTAS 251611Z 30011KT 23/11 A2996 RMK A01 T02340111  RH  046%=      5-min Rain = 0
KTAS 251612Z 30012KT 23/11 A2996 RMK A01 T02340107  RH  045%=      5-min Rain = 0
KTAS 251613Z 29010KT 23/11 A2996 RMK A01 T02330107  RH  045%=      5-min Rain = 0
KTAS 251614Z 29011KT 23/10 A2996 RMK A01 T02320103  RH  044%=      5-min Rain = 0
KTAS 251615Z 29010KT 23/10 A2996 RMK A01 T02320102  RH  044%=      5-min Rain = 0
KTAS 251616Z 30008KT 23/11 A2996 RMK A01 T02320105  RH  045%=      5-min Rain = 0
KTAS 251617Z 30011KT 23/11 A2996 RMK A01 T02330110  RH  046%=      5-min Rain = 0
KTAS 251618Z 30009KT 24/11 A2996 RMK A01 T02360114  RH  046%=      5-min Rain = 0
KTAS 251619Z 32010KT 24/11 A2996 RMK A01 T02370110  RH  045%=      5-min Rain = 0
KTAS 251620Z 30011KT 24/10 A2996 RMK A01 T02360104  RH  043%=      5-min Rain = 0
KTAS 251621Z 29010KT 24/11 A2996 RMK A01 T02360105  RH  044%=      5-min Rain = 0
KTAS 251622Z 31011KT 24/11 A2996 RMK A01 T02360107  RH  044%=      5-min Rain = 0
KTAS 251623Z 31010KT 24/11 A2996 RMK A01 T02370106  RH  044%=      5-min Rain = 0
KTAS 251624Z 31010KT 24/11 A2996 RMK A01 T02370108  RH  044%=      5-min Rain = 0
KTAS 251625Z 31009KT 24/11 A2996 RMK A01 T02370108  RH  044%=      5-min Rain = 0
KTAS 251626Z 31009KT 24/11 A2996 RMK A01 T02380110  RH  045%=      5-min Rain = 0
KTAS 251627Z 28010KT 24/11 A2996 RMK A01 T02400113  RH  045%=      5-min Rain = 0
KTAS 251628Z 29010KT 24/11 A2996 RMK A01 T02400110  RH  044%=      5-min Rain = 0
KTAS 251629Z 29010KT 24/11 A2996 RMK A01 T02380109  RH  044%=      5-min Rain = 0
KTAS 251630Z 31010KT 24/11 A2996 RMK A01 T02360105  RH  044%=      5-min Rain = 0
KTAS 251631Z 31009KT 24/11 A2996 RMK A01 T02360105  RH  044%=      5-min Rain = 0
KTAS 251632Z 30010KT 24/11 A2996 RMK A01 T02390109  RH  044%=      5-min Rain = 0
KTAS 251633Z 30010KT 24/10 A2996 RMK A01 T02400102  RH  042%=      5-min Rain = 0
KTAS 251634Z 31011KT 24/10 A2997 RMK A01 T02390101  RH  042%=      5-min Rain = 0
KTAS 251635Z 31010KT 24/11 A2997 RMK A01 T02390108  RH  044%=      5-min Rain = 0
KTAS 251636Z 30009KT 24/11 A2997 RMK A01 T02390109  RH  044%=      5-min Rain = 0
KTAS 251637Z 30011KT 24/10 A2997 RMK A01 T02390103  RH  042%=      5-min Rain = 0
KTAS 251638Z 30009KT 24/10 A2997 RMK A01 T02370104  RH  043%=      5-min Rain = 0
KTAS 251639Z 28010KT 24/11 A2997 RMK A01 T02390105  RH  043%=      5-min Rain = 0
KTAS 251640Z 30009KT 24/11 A2997 RMK A01 T02400110  RH  044%=      5-min Rain = 0
KTAS 251641Z 31009KT 24/11 A2997 RMK A01 T02420109  RH  043%=      5-min Rain = 0
KTAS 251642Z 29007KT 24/11 A2997 RMK A01 T02420108  RH  043%=      5-min Rain = 0
KTAS 251643Z 29007KT 24/11 A2997 RMK A01 T02430114  RH  044%=      5-min Rain = 0
KTAS 251644Z 29008KT 24/11 A2997 RMK A01 T02430112  RH  044%=      5-min Rain = 0
KTAS 251645Z 29008KT 24/11 A2997 RMK A01 T02430112  RH  044%=      5-min Rain = 0
KTAS 251646Z 30008KT 24/11 A2997 RMK A01 T02420111  RH  044%=      5-min Rain = 0
KTAS 251647Z 31008KT 24/11 A2997 RMK A01 T02430113  RH  044%=      5-min Rain = 0
KTAS 251648Z 28008KT 24/11 A2997 RMK A01 T02430111  RH  044%=      5-min Rain = 0
KTAS 251649Z 29007KT 24/11 A2997 RMK A01 T02430111  RH  044%=      5-min Rain = 0
KTAS 251650Z 29008KT 24/11 A2997 RMK A01 T02420108  RH  043%=      5-min Rain = 0
KTAS 251651Z 30009KT 24/11 A2997 RMK A01 T02430112  RH  044%=      5-min Rain = 0
KTAS 251652Z 30009KT 25/12 A2997 RMK A01 T02450115  RH  044%=      5-min Rain = 0
KTAS 251653Z 30008KT 24/11 A2997 RMK A01 T02430107  RH  042%=      5-min Rain = 0
KTAS 251654Z 29008KT 24/11 A2997 RMK A01 T02430110  RH  043%=      5-min Rain = 0
KTAS 251655Z 30006KT 24/11 A2997 RMK A01 T02430112  RH  044%=      5-min Rain = 0
KTAS 251656Z 32005KT 24/10 A2997 RMK A01 T02420103  RH  042%=      5-min Rain = 0
KTAS 251657Z 32004KT 24/11 A2997 RMK A01 T02410111  RH  044%=      5-min Rain = 0
KTAS 251658Z 30006KT 24/12 A2997 RMK A01 T02440120  RH  046%=      5-min Rain = 0
KTAS 251659Z 32005KT 25/11 A2997 RMK A01 T02450108  RH  042%=      5-min Rain = 0
KTAS 251700Z 31006KT 25/11 A2997 RMK A01 T02450112  RH  043%=      5-min Rain = 0
KTAS 251701Z 31009KT 25/11 A2997 RMK A01 T02460109  RH  042%=      5-min Rain = 0
KTAS 251702Z 30008KT 25/11 A2997 RMK A01 T02450108  RH  042%=      5-min Rain = 0
KTAS 251703Z 31008KT 25/11 A2997 RMK A01 T02460107  RH  041%=      5-min Rain = 0
KTAS 251704Z 30007KT 25/11 A2997 RMK A01 T02460106  RH  041%=      5-min Rain = 0
KTAS 251705Z 29005KT 25/11 A2997 RMK A01 T02450106  RH  041%=      5-min Rain = 0
KTAS 251706Z 30005KT 25/11 A2997 RMK A01 T02460108  RH  042%=      5-min Rain = 0
KTAS 251707Z 30007KT 25/11 A2997 RMK A01 T02480105  RH  040%=      5-min Rain = 0
KTAS 251708Z 32007KT 25/10 A2997 RMK A01 T02490102  RH  039%=      5-min Rain = 0
KTAS 251709Z 32008KT 25/11 A2997 RMK A01 T02510108  RH  040%=      5-min Rain = 0
KTAS 251710Z 33006KT 25/11 A2997 RMK A01 T02500107  RH  041%=      5-min Rain = 0
KTAS 251711Z 32005KT 25/11 A2997 RMK A01 T02520108  RH  040%=      5-min Rain = 0
KTAS 251712Z 34006KT 25/11 A2997 RMK A01 T02510106  RH  040%=      5-min Rain = 0
KTAS 251713Z 32005KT 25/11 A2997 RMK A01 T02530106  RH  040%=      5-min Rain = 0
KTAS 251714Z 33007KT 25/11 A2997 RMK A01 T02540111  RH  041%=      5-min Rain = 0
KTAS 251715Z 34007KT 25/10 A2998 RMK A01 T02530098  RH  037%=      5-min Rain = 0
KTAS 251716Z 33007KT 25/10 A2998 RMK A01 T02520097  RH  038%=      5-min Rain = 0
KTAS 251717Z 35009KT 25/10 A2998 RMK A01 T02520100  RH  038%=      5-min Rain = 0
KTAS 251718Z 00008KT 25/10 A2998 RMK A01 T02520099  RH  038%=      5-min Rain = 0
KTAS 251719Z 01008KT 25/10 A2998 RMK A01 T02530101  RH  038%=      5-min Rain = 0
KTAS 251720Z 00008KT 25/10 A2998 RMK A01 T02530100  RH  038%=      5-min Rain = 0
KTAS 251721Z 35008KT 25/10 A2998 RMK A01 T02520100  RH  038%=      5-min Rain = 0
KTAS 251722Z 36008KT 25/10 A2998 RMK A01 T02520102  RH  039%=      5-min Rain = 0
KTAS 251723Z 35008KT 25/11 A2998 RMK A01 T02530105  RH  039%=      5-min Rain = 0
KTAS 251724Z 33009KT 25/11 A2998 RMK A01 T02520106  RH  040%=      5-min Rain = 0
KTAS 251725Z 34008KT 25/11 A2998 RMK A01 T02510106  RH  040%=      5-min Rain = 0
KTAS 251726Z 34007KT 25/10 A2998 RMK A01 T02510101  RH  039%=      5-min Rain = 0
KTAS 251727Z 35008KT 25/11 A2998 RMK A01 T02520106  RH  040%=      5-min Rain = 0
KTAS 251728Z 01007KT 25/10 A2998 RMK A01 T02510101  RH  039%=      5-min Rain = 0
KTAS 251729Z 00006KT 25/10 A2998 RMK A01 T02510104  RH  039%=      5-min Rain = 0
KTAS 251730Z 34008KT 25/11 A2998 RMK A01 T02530109  RH  041%=      5-min Rain = 0
KTAS 251731Z 34007KT 25/10 A2998 RMK A01 T02540102  RH  038%=      5-min Rain = 0
KTAS 251732Z 35009KT 26/11 A2998 RMK A01 T02550109  RH  040%=      5-min Rain = 0
KTAS 251733Z 35006KT 26/11 A2998 RMK A01 T02550105  RH  039%=      5-min Rain = 0
KTAS 251734Z 00008KT 26/10 A2998 RMK A01 T02550102  RH  038%=      5-min Rain = 0
KTAS 251735Z 36007KT 25/10 A2998 RMK A01 T02540095  RH  037%=      5-min Rain = 0
KTAS 251736Z 34007KT 25/10 A2998 RMK A01 T02540096  RH  037%=      5-min Rain = 0
KTAS 251737Z 34007KT 26/10 A2998 RMK A01 T02550102  RH  038%=      5-min Rain = 0
KTAS 251738Z 33006KT 26/10 A2998 RMK A01 T02560103  RH  038%=      5-min Rain = 0
KTAS 251739Z 34006KT 26/11 A2998 RMK A01 T02580106  RH  038%=      5-min Rain = 0
KTAS 251740Z 01005KT 26/10 A2998 RMK A01 T02580102  RH  037%=      5-min Rain = 0
KTAS 251741Z 02005KT 26/11 A2998 RMK A01 T02580108  RH  039%=      5-min Rain = 0
KTAS 251742Z 01009KT 26/11 A2998 RMK A01 T02590105  RH  038%=      5-min Rain = 0
KTAS 251743Z 01011KT 26/10 A2998 RMK A01 T02610102  RH  037%=      5-min Rain = 0
KTAS 251744Z 01010KT 26/10 A2998 RMK A01 T02590097  RH  036%=      5-min Rain = 0
KTAS 251745Z 02009KT 26/10 A2998 RMK A01 T02570097  RH  036%=      5-min Rain = 0
KTAS 251746Z 01006KT 26/10 A2998 RMK A01 T02550096  RH  037%=      5-min Rain = 0
KTAS 251747Z 01010KT 26/10 A2998 RMK A01 T02550097  RH  037%=      5-min Rain = 0
KTAS 251748Z 01009KT 26/10 A2998 RMK A01 T02570096  RH  036%=      5-min Rain = 0
KTAS 251749Z 02010KT 26/10 A2998 RMK A01 T02570095  RH  036%=      5-min Rain = 0
KTAS 251750Z 01009KT 26/10 A2998 RMK A01 T02580101  RH  037%=      5-min Rain = 0
KTAS 251751Z 35007KT 26/10 A2998 RMK A01 T02590103  RH  038%=      5-min Rain = 0
KTAS 251752Z 35008KT 26/10 A2998 RMK A01 T02570098  RH  037%=      5-min Rain = 0
KTAS 251753Z 01004KT 26/10 A2997 RMK A01 T02560097  RH  037%=      5-min Rain = 0
KTAS 251754Z 35006G11KT 26/10 A2997 RMK A01 T02570104  RH  038%=      5-min Rain = 0
KTAS 251755Z 00008KT 26/10 A2997 RMK A01 T02590099  RH  037%=      5-min Rain = 0
KTAS 251756Z 33005KT 26/10 A2997 RMK A01 T02600103  RH  037%=      5-min Rain = 0
KTAS 251757Z 01008KT 26/10 A2997 RMK A01 T02580096  RH  036%=      5-min Rain = 0
KTAS 251758Z 02009KT 26/10 A2997 RMK A01 T02590101  RH  037%=      5-min Rain = 0
KTAS 251759Z 00008KT 26/11 A2998 RMK A01 T02610110  RH  039%=      5-min Rain = 0
KTAS 251800Z 01007KT 26/10 A2998 RMK A01 T02610101  RH  036%=      5-min Rain = 0
KTAS 251801Z 35007KT 26/10 A2998 RMK A01 T02610101  RH  037%=      5-min Rain = 0
KTAS 251802Z 00007KT 26/09 A2998 RMK A01 T02570092  RH  035%=      5-min Rain = 0
KTAS 251803Z 01008KT 26/10 A2998 RMK A01 T02570104  RH  038%=      5-min Rain = 0
KTAS 251804Z 36007KT 26/10 A2998 RMK A01 T02580102  RH  037%=      5-min Rain = 0
KTAS 251805Z 35003KT 26/10 A2998 RMK A01 T02560099  RH  037%=      5-min Rain = 0
KTAS 251806Z 36004KT 26/11 A2998 RMK A01 T02570105  RH  038%=      5-min Rain = 0
KTAS 251807Z 00010KT 26/11 A2998 RMK A01 T02590108  RH  039%=      5-min Rain = 0
KTAS 251808Z 36008KT 26/11 A2998 RMK A01 T02620108  RH  038%=      5-min Rain = 0
KTAS 251809Z 36007KT 26/10 A2998 RMK A01 T02630103  RH  036%=      5-min Rain = 0
KTAS 251810Z 01012KT 26/10 A2998 RMK A01 T02640101  RH  036%=      5-min Rain = 0
KTAS 251811Z 02009KT 26/09 A2998 RMK A01 T02620094  RH  035%=      5-min Rain = 0
KTAS 251812Z 02008KT 26/10 A2998 RMK A01 T02620097  RH  035%=      5-min Rain = 0
KTAS 251813Z 04007KT 26/10 A2998 RMK A01 T02610098  RH  036%=      5-min Rain = 0
KTAS 251814Z 03007KT 26/10 A2998 RMK A01 T02600098  RH  036%=      5-min Rain = 0
KTAS 251815Z 01007KT 26/11 A2999 RMK A01 T02620109  RH  038%=      5-min Rain = 0
KTAS 251816Z 02011KT 27/11 A2999 RMK A01 T02650108  RH  037%=      5-min Rain = 0
KTAS 251817Z 01010KT 27/11 A2999 RMK A01 T02660111  RH  038%=      5-min Rain = 0
KTAS 251818Z 03013G18KT 27/11 A2999 RMK A01 T02660106  RH  037%=      5-min Rain = 0
KTAS 251819Z 03012KT 27/10 A2999 RMK A01 T02650103  RH  036%=      5-min Rain = 0
KTAS 251820Z 00008KT 26/10 A2999 RMK A01 T02630102  RH  036%=      5-min Rain = 0
KTAS 251821Z 02012G17KT 27/11 A2999 RMK A01 T02650110  RH  038%=      5-min Rain = 0
KTAS 251822Z 03011KT 27/11 A2998 RMK A01 T02660107  RH  037%=      5-min Rain = 0
KTAS 251823Z 02013KT 27/10 A2998 RMK A01 T02660104  RH  036%=      5-min Rain = 0
KTAS 251824Z 03015KT 27/10 A2998 RMK A01 T02650104  RH  036%=      5-min Rain = 0
KTAS 251825Z 03013KT 26/10 A2998 RMK A01 T02640104  RH  037%=      5-min Rain = 0
KTAS 251826Z 03013KT 26/11 A2998 RMK A01 T02640108  RH  038%=      5-min Rain = 0
KTAS 251827Z 03011KT 27/11 A2998 RMK A01 T02650107  RH  037%=      5-min Rain = 0
KTAS 251828Z 02010KT 27/10 A2998 RMK A01 T02650104  RH  036%=      5-min Rain = 0
KTAS 251829Z 02011KT 27/11 A2998 RMK A01 T02660111  RH  038%=      5-min Rain = 0
KTAS 251830Z 04012KT 27/11 A2998 RMK A01 T02670108  RH  037%=      5-min Rain = 0
KTAS 251831Z 04011KT 26/11 A2998 RMK A01 T02640105  RH  037%=      5-min Rain = 0
KTAS 251832Z 05012KT 26/11 A2998 RMK A01 T02630108  RH  038%=      5-min Rain = 0
KTAS 251833Z 05011KT 26/11 A2998 RMK A01 T02620106  RH  038%=      5-min Rain = 0
KTAS 251834Z 03010KT 26/11 A2998 RMK A01 T02620107  RH  038%=      5-min Rain = 0
KTAS 251835Z 04009KT 26/11 A2998 RMK A01 T02630112  RH  039%=      5-min Rain = 0
KTAS 251836Z 04010KT 26/11 A2998 RMK A01 T02640113  RH  039%=      5-min Rain = 0
KTAS 251837Z 05009KT 27/11 A2998 RMK A01 T02650113  RH  039%=      5-min Rain = 0
KTAS 251838Z 04007KT 27/11 A2998 RMK A01 T02650111  RH  038%=      5-min Rain = 0
KTAS 251839Z 03006KT 27/11 A2998 RMK A01 T02660112  RH  038%=      5-min Rain = 0
KTAS 251840Z 03011KT 27/11 A2998 RMK A01 T02670114  RH  039%=      5-min Rain = 0
KTAS 251841Z 03013KT 27/11 A2998 RMK A01 T02670114  RH  038%=      5-min Rain = 0
KTAS 251842Z 03012KT 27/11 A2998 RMK A01 T02670109  RH  037%=      5-min Rain = 0
KTAS 251843Z 04010KT 27/11 A2998 RMK A01 T02670108  RH  037%=      5-min Rain = 0
KTAS 251844Z 06005KT 27/11 A2998 RMK A01 T02660105  RH  036%=      5-min Rain = 0
KTAS 251845Z 07008KT 26/11 A2998 RMK A01 T02640109  RH  038%=      5-min Rain = 0
KTAS 251846Z 06011KT 27/12 A2998 RMK A01 T02650115  RH  039%=      5-min Rain = 0
KTAS 251847Z 04012KT 27/11 A2998 RMK A01 T02670109  RH  037%=      5-min Rain = 0
KTAS 251848Z 02014KT 27/11 A2998 RMK A01 T02690106  RH  036%=      5-min Rain = 0
KTAS 251849Z 01010KT 27/10 A2998 RMK A01 T02700100  RH  034%=      5-min Rain = 0
KTAS 251850Z 01006KT 27/10 A2998 RMK A01 T02700103  RH  035%=      5-min Rain = 0
KTAS 251851Z 01008KT 27/11 A2998 RMK A01 T02720105  RH  035%=      5-min Rain = 0
KTAS 251852Z 02013KT 27/10 A2999 RMK A01 T02720103  RH  035%=      5-min Rain = 0
KTAS 251853Z 04014KT 27/11 A2998 RMK A01 T02720106  RH  035%=      5-min Rain = 0
KTAS 251854Z 03009KT 27/11 A2998 RMK A01 T02700107  RH  036%=      5-min Rain = 0
KTAS 251855Z 03009KT 27/11 A2998 RMK A01 T02720109  RH  036%=      5-min Rain = 0
KTAS 251856Z 04009KT 27/10 A2998 RMK A01 T02720104  RH  035%=      5-min Rain = 0
KTAS 251857Z 01009KT 27/10 A2998 RMK A01 T02720103  RH  035%=      5-min Rain = 0
KTAS 251858Z 01010KT 27/11 A2999 RMK A01 T02740107  RH  035%=      5-min Rain = 0
KTAS 251859Z 01007KT 27/10 A2999 RMK A01 T02720101  RH  034%=      5-min Rain = 0
KTAS 251900Z 02004KT 27/10 A2998 RMK A01 T02710102  RH  035%=      5-min Rain = 0
KTAS 251901Z 02007KT 27/10 A2998 RMK A01 T02710101  RH  035%=      5-min Rain = 0
KTAS 251902Z 02010KT 27/11 A2998 RMK A01 T02740106  RH  035%=      5-min Rain = 0
KTAS 251903Z 36014KT 28/09 A2999 RMK A01 T02760094  RH  032%=      5-min Rain = 0
KTAS 251904Z 36014KT 28/09 A2999 RMK A01 T02760087  RH  030%=      5-min Rain = 0
KTAS 251905Z 01011KT 28/08 A2999 RMK A01 T02750079  RH  029%=      5-min Rain = 0
KTAS 251906Z 36009KT 27/08 A2999 RMK A01 T02720082  RH  030%=      5-min Rain = 0
KTAS 251907Z 00008KT 27/09 A2999 RMK A01 T02720091  RH  032%=      5-min Rain = 0
KTAS 251908Z 36007KT 27/10 A2999 RMK A01 T02740096  RH  033%=      5-min Rain = 0
KTAS 251909Z 35008KT 28/11 A2999 RMK A01 T02780111  RH  035%=      5-min Rain = 0
KTAS 251910Z 00011KT 28/10 A2999 RMK A01 T02790098  RH  032%=      5-min Rain = 0
KTAS 251911Z 02009KT 28/10 A2999 RMK A01 T02780097  RH  032%=      5-min Rain = 0
KTAS 251912Z 01007KT 28/09 A2999 RMK A01 T02760093  RH  032%=      5-min Rain = 0
KTAS 251913Z 01006KT 27/09 A2999 RMK A01 T02740089  RH  031%=      5-min Rain = 0
KTAS 251914Z 01009KT 27/09 A2999 RMK A01 T02740093  RH  032%=      5-min Rain = 0
KTAS 251915Z 35010KT 28/10 A2999 RMK A01 T02770104  RH  034%=      5-min Rain = 0
KTAS 251916Z 01011KT 28/10 A2999 RMK A01 T02790102  RH  033%=      5-min Rain = 0
KTAS 251917Z 02014KT 28/10 A2999 RMK A01 T02790104  RH  033%=      5-min Rain = 0
KTAS 251918Z 02015KT 28/11 A2999 RMK A01 T02800108  RH  034%=      5-min Rain = 0
KTAS 251919Z 03013KT 28/10 A2999 RMK A01 T02780095  RH  032%=      5-min Rain = 0
KTAS 251920Z 03009KT 28/09 A2999 RMK A01 T02750091  RH  031%=      5-min Rain = 0
KTAS 251921Z 02012KT 27/10 A2999 RMK A01 T02740102  RH  034%=      5-min Rain = 0
KTAS 251922Z 02013KT 28/10 A2999 RMK A01 T02770103  RH  034%=      5-min Rain = 0
KTAS 251923Z 01014KT 28/10 A2999 RMK A01 T02750099  RH  033%=      5-min Rain = 0
KTAS 251924Z 02013KT 27/10 A2999 RMK A01 T02730098  RH  033%=      5-min Rain = 0
KTAS 251925Z 02014KT 27/11 A2999 RMK A01 T02740106  RH  035%=      5-min Rain = 0
KTAS 251926Z 03013KT 28/11 A2999 RMK A01 T02760105  RH  034%=      5-min Rain = 0
KTAS 251927Z 03011KT 28/11 A2999 RMK A01 T02750105  RH  035%=      5-min Rain = 0
KTAS 251928Z 01012KT 28/11 A2999 RMK A01 T02750108  RH  035%=      5-min Rain = 0
KTAS 251929Z 02010KT 28/11 A2999 RMK A01 T02770112  RH  036%=      5-min Rain = 0
KTAS 251930Z 02009KT 28/12 A2999 RMK A01 T02810116  RH  036%=      5-min Rain = 0
KTAS 251931Z 04008KT 28/11 A2999 RMK A01 T02810112  RH  035%=      5-min Rain = 0
KTAS 251932Z 02009KT 28/11 A2999 RMK A01 T02780106  RH  034%=      5-min Rain = 0
KTAS 251933Z 03014G19KT 28/11 A2999 RMK A01 T02780113  RH  036%=      5-min Rain = 0
KTAS 251934Z 04016KT 28/11 A2999 RMK A01 T02770109  RH  035%=      5-min Rain = 0
KTAS 251935Z 04012KT 27/11 A2999 RMK A01 T02740107  RH  035%=      5-min Rain = 0
KTAS 251936Z 04009KT 27/11 A2999 RMK A01 T02730107  RH  036%=      5-min Rain = 0
KTAS 251937Z 05013KT 27/11 A2999 RMK A01 T02740112  RH  037%=      5-min Rain = 0
KTAS 251938Z 05013KT 27/11 A2999 RMK A01 T02720106  RH  035%=      5-min Rain = 0
KTAS 251939Z 05014KT 27/11 A2999 RMK A01 T02710105  RH  035%=      5-min Rain = 0
KTAS 251940Z 05013KT 27/11 A2999 RMK A01 T02710108  RH  036%=      5-min Rain = 0
KTAS 251941Z 03014KT 27/10 A2999 RMK A01 T02710104  RH  035%=      5-min Rain = 0
KTAS 251942Z 02013KT 27/11 A30 RMK A01 T02740106  RH  035%=      5-min Rain = 0
KTAS 251943Z 03013KT 28/11 A2999 RMK A01 T02770111  RH  035%=      5-min Rain = 0
KTAS 251944Z 02014KT 28/10 A30 RMK A01 T02770103  RH  034%=      5-min Rain = 0
KTAS 251945Z 03011KT 28/10 A30 RMK A01 T02750103  RH  034%=      5-min Rain = 0
KTAS 251946Z 01011KT 28/11 A30 RMK A01 T02760105  RH  034%=      5-min Rain = 0
KTAS 251947Z 02012KT 28/11 A30 RMK A01 T02760105  RH  034%=      5-min Rain = 0
KTAS 251948Z 01013KT 28/10 A30 RMK A01 T02750103  RH  034%=      5-min Rain = 0
KTAS 251949Z 03011KT 28/11 A30 RMK A01 T02750109  RH  035%=      5-min Rain = 0
KTAS 251950Z 03011KT 28/11 A30 RMK A01 T02770109  RH  035%=      5-min Rain = 0
KTAS 251951Z 03013KT 28/11 A30 RMK A01 T02760107  RH  035%=      5-min Rain = 0
KTAS 251952Z 02014KT 28/11 A30 RMK A01 T02750106  RH  035%=      5-min Rain = 0
KTAS 251953Z 03013KT 28/11 A30 RMK A01 T02760110  RH  036%=      5-min Rain = 0
KTAS 251954Z 04014KT 27/10 A30 RMK A01 T02730102  RH  034%=      5-min Rain = 0
KTAS 251955Z 04012KT 27/10 A30 RMK A01 T02690103  RH  035%=      5-min Rain = 0
KTAS 251956Z 04013KT 27/11 A30 RMK A01 T02690107  RH  036%=      5-min Rain = 0
KTAS 251957Z 04014G19KT 27/11 A30 RMK A01 T02690107  RH  036%=      5-min Rain = 0
KTAS 251958Z 04014KT 27/10 A30 RMK A01 T02690103  RH  035%=      5-min Rain = 0
KTAS 251959Z 04015KT 27/10 A30 RMK A01 T02700104  RH  035%=      5-min Rain = 0
KTAS 252000Z 04014KT 27/10 A30 RMK A01 T02690100  RH  035%=      5-min Rain = 0
KTAS 252001Z 03013KT 27/11 A30 RMK A01 T02690105  RH  036%=      5-min Rain = 0
KTAS 252002Z 04015KT 27/11 A30 RMK A01 T02690105  RH  036%=      5-min Rain = 0
KTAS 252003Z 03014KT 27/10 A30 RMK A01 T02690103  RH  035%=      5-min Rain = 0
KTAS 252004Z 03011KT 27/10 A30 RMK A01 T02680102  RH  035%=      5-min Rain = 0
KTAS 252005Z 04013KT 27/11 A30 RMK A01 T02700107  RH  036%=      5-min Rain = 0
KTAS 252006Z 04014KT 27/10 A30 RMK A01 T02690103  RH  035%=      5-min Rain = 0
KTAS 252007Z 04016KT 27/11 A30 RMK A01 T02690106  RH  036%=      5-min Rain = 0
KTAS 252008Z 04015KT 27/10 A30 RMK A01 T02670098  RH  035%=      5-min Rain = 0
KTAS 252009Z 04014KT 27/10 A30 RMK A01 T02650100  RH  035%=      5-min Rain = 0
KTAS 252010Z 04013KT 27/10 A30 RMK A01 T02670104  RH  036%=      5-min Rain = 0
KTAS 252011Z 04010KT 27/11 A30 RMK A01 T02680106  RH  036%=      5-min Rain = 0
KTAS 252012Z 05011G18KT 27/11 A30 RMK A01 T02690107  RH  036%=      5-min Rain = 0
KTAS 252013Z 04014KT 27/10 A30 RMK A01 T02700104  RH  035%=      5-min Rain = 0
KTAS 252014Z 04014G20KT 27/11 A30 RMK A01 T02700105  RH  035%=      5-min Rain = 0
KTAS 252015Z 03016KT 27/10 A3001 RMK A01 T02700102  RH  035%=      5-min Rain = 0
KTAS 252016Z 03013KT 27/10 A3001 RMK A01 T02680100  RH  035%=      5-min Rain = 0
KTAS 252017Z 04012KT 27/10 A3001 RMK A01 T02680102  RH  035%=      5-min Rain = 0
KTAS 252018Z 03011KT 27/10 A3001 RMK A01 T02680103  RH  036%=      5-min Rain = 0
KTAS 252019Z 03015KT 27/11 A3001 RMK A01 T02700106  RH  036%=      5-min Rain = 0
KTAS 252020Z 03015KT 27/10 A3001 RMK A01 T02690103  RH  035%=      5-min Rain = 0
KTAS 252021Z 04009KT 27/10 A3001 RMK A01 T02700104  RH  035%=      5-min Rain = 0
KTAS 252022Z 05010KT 27/10 A3001 RMK A01 T02690104  RH  035%=      5-min Rain = 0
KTAS 252023Z 04014KT 27/11 A3001 RMK A01 T02700109  RH  037%=      5-min Rain = 0
KTAS 252024Z 04017KT 27/10 A3001 RMK A01 T02700102  RH  035%=      5-min Rain = 0
KTAS 252025Z 04013KT 27/11 A3001 RMK A01 T02700105  RH  036%=      5-min Rain = 0
KTAS 252026Z 03011KT 27/10 A3001 RMK A01 T02690102  RH  035%=      5-min Rain = 0
KTAS 252027Z 04011KT 27/11 A3001 RMK A01 T02720112  RH  037%=      5-min Rain = 0
KTAS 252028Z 05012KT 27/10 A3001 RMK A01 T02710101  RH  034%=      5-min Rain = 0
KTAS 252029Z 05013KT 27/10 A3001 RMK A01 T02700103  RH  035%=      5-min Rain = 0
KTAS 252030Z 04016KT 27/10 A3001 RMK A01 T02700101  RH  035%=      5-min Rain = 0
KTAS 252031Z 03012KT 27/11 A3001 RMK A01 T02700106  RH  036%=      5-min Rain = 0
KTAS 252032Z 02009KT 27/11 A3001 RMK A01 T02740114  RH  037%=      5-min Rain = 0
KTAS 252033Z 04012G18KT 28/11 A3001 RMK A01 T02750109  RH  035%=      5-min Rain = 0
KTAS 252034Z 04015KT 27/10 A3001 RMK A01 T02730100  RH  034%=      5-min Rain = 0
KTAS 252035Z 04012KT 27/10 A3001 RMK A01 T02720104  RH  035%=      5-min Rain = 0
KTAS 252036Z 04013KT 27/10 A3001 RMK A01 T02720102  RH  034%=      5-min Rain = 0
KTAS 252037Z 04015KT 27/10 A3001 RMK A01 T02720101  RH  034%=      5-min Rain = 0
KTAS 252038Z 04013KT 27/10 A3001 RMK A01 T02710098  RH  034%=      5-min Rain = 0
KTAS 252039Z 04013G18KT 27/10 A3001 RMK A01 T02700099  RH  034%=      5-min Rain = 0
KTAS 252040Z 03013G19KT 27/10 A3001 RMK A01 T02700101  RH  035%=      5-min Rain = 0
KTAS 252041Z 03015KT 27/10 A3001 RMK A01 T02710101  RH  034%=      5-min Rain = 0
KTAS 252042Z 04012KT 27/10 A3001 RMK A01 T02690098  RH  034%=      5-min Rain = 0
KTAS 252043Z 03014KT 27/10 A3001 RMK A01 T02690099  RH  034%=      5-min Rain = 0
KTAS 252044Z 03013KT 27/10 A3001 RMK A01 T02720104  RH  035%=      5-min Rain = 0
KTAS 252045Z 04013KT 27/11 A3001 RMK A01 T02730105  RH  035%=      5-min Rain = 0
KTAS 252046Z 04013G18KT 27/10 A3001 RMK A01 T02720101  RH  034%=      5-min Rain = 0
KTAS 252047Z 04013KT 27/10 A3001 RMK A01 T02700100  RH  034%=      5-min Rain = 0
KTAS 252048Z 05010KT 27/10 A3001 RMK A01 T02690098  RH  034%=      5-min Rain = 0
KTAS 252049Z 04010KT 27/11 A3001 RMK A01 T02700105  RH  036%=      5-min Rain = 0
KTAS 252050Z 04015G20KT 27/10 A3001 RMK A01 T02710098  RH  034%=      5-min Rain = 0
KTAS 252051Z 04016KT 27/10 A3001 RMK A01 T02710098  RH  034%=      5-min Rain = 0
KTAS 252052Z 03013KT 27/10 A3001 RMK A01 T02700097  RH  034%=      5-min Rain = 0
KTAS 252053Z 03015KT 27/10 A3001 RMK A01 T02700096  RH  033%=      5-min Rain = 0
KTAS 252054Z 05013KT 27/10 A3001 RMK A01 T02680095  RH  034%=      5-min Rain = 0
KTAS 252055Z 04013KT 27/10 A3001 RMK A01 T02690098  RH  034%=      5-min Rain = 0
KTAS 252056Z 05012KT 27/10 A3001 RMK A01 T02700101  RH  035%=      5-min Rain = 0
KTAS 252057Z 04014G20KT 27/10 A3001 RMK A01 T02710098  RH  034%=      5-min Rain = 0
KTAS 252058Z 03014KT 27/10 A3001 RMK A01 T02710096  RH  033%=      5-min Rain = 0
KTAS 252059Z 03015KT 27/10 A3001 RMK A01 T02710098  RH  034%=      5-min Rain = 0
KTAS 252100Z 03016KT 27/10 A3001 RMK A01 T02710098  RH  034%=      5-min Rain = 0
KTAS 252101Z 03013KT 27/10 A3001 RMK A01 T02710099  RH  034%=      5-min Rain = 0
KTAS 252102Z 04014KT 27/10 A3001 RMK A01 T02720095  RH  033%=      5-min Rain = 0
KTAS 252103Z 03014KT 27/09 A3001 RMK A01 T02700093  RH  033%=      5-min Rain = 0
KTAS 252104Z 02013KT 27/09 A3001 RMK A01 T02700092  RH  033%=      5-min Rain = 0
KTAS 252105Z 03012KT 27/10 A3001 RMK A01 T02710096  RH  033%=      5-min Rain = 0
KTAS 252106Z 03014KT 27/09 A3001 RMK A01 T02720093  RH  032%=      5-min Rain = 0
KTAS 252107Z 04011KT 27/10 A3001 RMK A01 T02720095  RH  033%=      5-min Rain = 0
KTAS 252108Z 05014KT 27/09 A3001 RMK A01 T02730092  RH  032%=      5-min Rain = 0
KTAS 252109Z 05010KT 27/09 A3001 RMK A01 T02710089  RH  032%=      5-min Rain = 0
KTAS 252110Z 03011KT 27/09 A3001 RMK A01 T02710090  RH  032%=      5-min Rain = 0
KTAS 252111Z 03009KT 27/09 A3001 RMK A01 T02700089  RH  032%=      5-min Rain = 0
KTAS 252112Z 04012KT 27/09 A3001 RMK A01 T02720093  RH  032%=      5-min Rain = 0
KTAS 252113Z 02011KT 27/09 A3001 RMK A01 T02730089  RH  031%=      5-min Rain = 0
KTAS 252114Z 01014KT 28/09 A3001 RMK A01 T02750093  RH  032%=      5-min Rain = 0
KTAS 252115Z 35014KT 27/08 A3001 RMK A01 T02740079  RH  029%=      5-min Rain = 0
KTAS 252116Z 02013KT 27/08 A3001 RMK A01 T02730079  RH  029%=      5-min Rain = 0
KTAS 252117Z 03010KT 27/08 A3001 RMK A01 T02730077  RH  029%=      5-min Rain = 0
KTAS 252118Z 04009KT 27/08 A3001 RMK A01 T02730080  RH  030%=      5-min Rain = 0
KTAS 252119Z 04011KT 28/09 A3001 RMK A01 T02750090  RH  031%=      5-min Rain = 0
KTAS 252120Z 03009KT 28/10 A3001 RMK A01 T02760096  RH  032%=      5-min Rain = 0
KTAS 252121Z 03012G18KT 28/10 A3001 RMK A01 T02770101  RH  033%=      5-min Rain = 0
KTAS 252122Z 04013G18KT 28/10 A3001 RMK A01 T02770101  RH  033%=      5-min Rain = 0
KTAS 252123Z 04013KT 28/10 A3001 RMK A01 T02750100  RH  034%=      5-min Rain = 0
KTAS 252124Z 03013KT 27/10 A3001 RMK A01 T02730099  RH  034%=      5-min Rain = 0
KTAS 252125Z 03013KT 27/10 A3001 RMK A01 T02730098  RH  033%=      5-min Rain = 0
KTAS 252126Z 03010KT 27/10 A3001 RMK A01 T02720099  RH  034%=      5-min Rain = 0
KTAS 252127Z 03014KT 27/10 A3001 RMK A01 T02710098  RH  034%=      5-min Rain = 0
KTAS 252128Z 03014KT 27/09 A3001 RMK A01 T02710094  RH  033%=      5-min Rain = 0
KTAS 252129Z 04012KT 27/09 A3001 RMK A01 T02700093  RH  033%=      5-min Rain = 0
KTAS 252130Z 05013KT 27/10 A3001 RMK A01 T02710095  RH  033%=      5-min Rain = 0
KTAS 252131Z 04013KT 27/10 A3001 RMK A01 T02710099  RH  034%=      5-min Rain = 0
KTAS 252132Z 04013KT 27/10 A3001 RMK A01 T02720098  RH  034%=      5-min Rain = 0
KTAS 252133Z 04016G21KT 27/10 A30 RMK A01 T02720097  RH  033%=      5-min Rain = 0
KTAS 252134Z 03016KT 27/10 A3001 RMK A01 T02710095  RH  033%=      5-min Rain = 0
KTAS 252135Z 03017G22KT 27/10 A3001 RMK A01 T02720097  RH  033%=      5-min Rain = 0
KTAS 252136Z 03014KT 27/09 A3001 RMK A01 T02710091  RH  032%=      5-min Rain = 0
KTAS 252137Z 04013KT 27/09 A3001 RMK A01 T02710089  RH  032%=      5-min Rain = 0
KTAS 252138Z 04012KT 27/09 A3001 RMK A01 T02710093  RH  033%=      5-min Rain = 0
KTAS 252139Z 04011KT 27/10 A3001 RMK A01 T02710096  RH  033%=      5-min Rain = 0
KTAS 252140Z 04010KT 27/10 A3001 RMK A01 T02720103  RH  035%=      5-min Rain = 0
KTAS 252141Z 03007KT 27/11 A3001 RMK A01 T02720105  RH  035%=      5-min Rain = 0
KTAS 252142Z 05009KT 27/11 A3001 RMK A01 T02730105  RH  035%=      5-min Rain = 0
KTAS 252143Z 03016G23KT 27/10 A3001 RMK A01 T02710101  RH  034%=      5-min Rain = 0
KTAS 252144Z 05011G16KT 27/10 A3001 RMK A01 T02700100  RH  034%=      5-min Rain = 0
KTAS 252145Z 04013KT 27/10 A3001 RMK A01 T02690101  RH  035%=      5-min Rain = 0
KTAS 252146Z 02014KT 27/10 A3001 RMK A01 T02710102  RH  035%=      5-min Rain = 0
KTAS 252147Z 02013KT 27/10 A3001 RMK A01 T02700099  RH  034%=      5-min Rain = 0
KTAS 252148Z 04010G15KT 27/10 A3001 RMK A01 T02710101  RH  035%=      5-min Rain = 0
KTAS 252149Z 04016G21KT 27/10 A3001 RMK A01 T02710101  RH  035%=      5-min Rain = 0
KTAS 252150Z 04016KT 27/10 A3001 RMK A01 T02700099  RH  034%=      5-min Rain = 0
KTAS 252151Z 02017KT 27/10 A3001 RMK A01 T02690098  RH  034%=      5-min Rain = 0
KTAS 252152Z 04014KT 27/10 A3001 RMK A01 T02690097  RH  034%=      5-min Rain = 0
KTAS 252153Z 04012KT 27/10 A3001 RMK A01 T02680096  RH  034%=      5-min Rain = 0
KTAS 252154Z 04014KT 27/10 A3001 RMK A01 T02680099  RH  035%=      5-min Rain = 0
KTAS 252155Z 04011KT 27/10 A3001 RMK A01 T02700102  RH  035%=      5-min Rain = 0
KTAS 252156Z 04014KT 27/10 A3001 RMK A01 T02710100  RH  034%=      5-min Rain = 0
KTAS 252157Z 04012KT 27/10 A3001 RMK A01 T02700095  RH  033%=      5-min Rain = 0
KTAS 252158Z 04011KT 27/10 A3001 RMK A01 T02700098  RH  034%=      5-min Rain = 0
KTAS 252159Z 03015KT 27/09 A3001 RMK A01 T02680093  RH  033%=      5-min Rain = 0
KTAS 252200Z 04015KT 27/09 A3001 RMK A01 T02680092  RH  033%=      5-min Rain = 0
KTAS 252201Z 02014KT 27/10 A3001 RMK A01 T02690095  RH  033%=      5-min Rain = 0
KTAS 252202Z 03015KT 27/09 A3001 RMK A01 T02700093  RH  033%=      5-min Rain = 0
KTAS 252203Z 04014KT 27/09 A3001 RMK A01 T02680087  RH  032%=      5-min Rain = 0
KTAS 252204Z 03012KT 27/09 A3001 RMK A01 T02670089  RH  033%=      5-min Rain = 0
KTAS 252205Z 05010KT 27/09 A3001 RMK A01 T02670091  RH  033%=      5-min Rain = 0
KTAS 252206Z 04012KT 27/09 A3001 RMK A01 T02680093  RH  033%=      5-min Rain = 0
KTAS 252207Z 02013KT 27/09 A3001 RMK A01 T02690094  RH  033%=      5-min Rain = 0
KTAS 252208Z 01013KT 27/09 A3001 RMK A01 T02690093  RH  033%=      5-min Rain = 0
KTAS 252209Z 02013KT 27/09 A3001 RMK A01 T02700093  RH  033%=      5-min Rain = 0
KTAS 252210Z 03012KT 27/09 A3001 RMK A01 T02690091  RH  033%=      5-min Rain = 0
KTAS 252211Z 04010KT 27/09 A3001 RMK A01 T02690092  RH  033%=      5-min Rain = 0
KTAS 252212Z 04011KT 27/09 A3001 RMK A01 T02690094  RH  033%=      5-min Rain = 0
KTAS 252213Z 03014KT 27/10 A3001 RMK A01 T02710100  RH  034%=      5-min Rain = 0
KTAS 252214Z 03015KT 27/10 A3001 RMK A01 T02700095  RH  033%=      5-min Rain = 0
KTAS 252215Z 03013KT 27/09 A3002 RMK A01 T02680093  RH  033%=      5-min Rain = 0
KTAS 252216Z 04014KT 27/09 A3001 RMK A01 T02670093  RH  033%=      5-min Rain = 0
KTAS 252217Z 04013G19KT 27/09 A3001 RMK A01 T02660092  RH  033%=      5-min Rain = 0
KTAS 252218Z 05013KT 27/09 A3002 RMK A01 T02670092  RH  033%=      5-min Rain = 0
KTAS 252219Z 05012KT 27/09 A3001 RMK A01 T02660088  RH  033%=      5-min Rain = 0
KTAS 252220Z 04011KT 27/09 A3002 RMK A01 T02660092  RH  033%=      5-min Rain = 0
KTAS 252221Z 04012KT 27/09 A3002 RMK A01 T02660090  RH  033%=      5-min Rain = 0
KTAS 252222Z 04014KT 27/10 A3002 RMK A01 T02680097  RH  034%=      5-min Rain = 0
KTAS 252223Z 04013KT 27/09 A3002 RMK A01 T02670090  RH  033%=      5-min Rain = 0
KTAS 252224Z 04012KT 27/10 A3002 RMK A01 T02670095  RH  034%=      5-min Rain = 0
KTAS 252225Z 04014KT 27/09 A3002 RMK A01 T02670092  RH  033%=      5-min Rain = 0
KTAS 252226Z 05013KT 27/10 A3002 RMK A01 T02670095  RH  034%=      5-min Rain = 0
KTAS 252227Z 04013KT 27/09 A3002 RMK A01 T02660093  RH  034%=      5-min Rain = 0
KTAS 252228Z 04015KT 27/09 A3002 RMK A01 T02660089  RH  033%=      5-min Rain = 0
KTAS 252229Z 03011KT 26/09 A3002 RMK A01 T02640086  RH  032%=      5-min Rain = 0
KTAS 252230Z 02013KT 27/09 A3002 RMK A01 T02650089  RH  033%=      5-min Rain = 0
KTAS 252231Z 02013KT 27/09 A3002 RMK A01 T02660088  RH  032%=      5-min Rain = 0
KTAS 252232Z 02014G19KT 27/09 A3002 RMK A01 T02670087  RH  032%=      5-min Rain = 0
KTAS 252233Z 02016KT 27/08 A3002 RMK A01 T02660081  RH  031%=      5-min Rain = 0
KTAS 252234Z 02015KT 27/08 A3002 RMK A01 T02660083  RH  031%=      5-min Rain = 0
KTAS 252235Z 03012KT 27/09 A3002 RMK A01 T02670086  RH  032%=      5-min Rain = 0
KTAS 252236Z 01014KT 27/09 A3003 RMK A01 T02670085  RH  032%=      5-min Rain = 0
KTAS 252237Z 02015KT 27/08 A3003 RMK A01 T02650080  RH  031%=      5-min Rain = 0
KTAS 252238Z 03016KT 27/08 A3003 RMK A01 T02650082  RH  031%=      5-min Rain = 0
KTAS 252239Z 03013KT 27/09 A3003 RMK A01 T02650085  RH  032%=      5-min Rain = 0
KTAS 252240Z 02011KT 27/09 A3003 RMK A01 T02650089  RH  033%=      5-min Rain = 0
KTAS 252241Z 03015KT 27/09 A3003 RMK A01 T02670092  RH  033%=      5-min Rain = 0
KTAS 252242Z 03011KT 27/09 A3003 RMK A01 T02660086  RH  032%=      5-min Rain = 0
KTAS 252243Z 04013KT 27/09 A3003 RMK A01 T02660087  RH  032%=      5-min Rain = 0
KTAS 252244Z 05013KT 27/08 A3003 RMK A01 T02660084  RH  032%=      5-min Rain = 0
KTAS 252245Z 04010KT 27/09 A3003 RMK A01 T02650088  RH  033%=      5-min Rain = 0
KTAS 252246Z 03014G19KT 27/09 A3003 RMK A01 T02670091  RH  033%=      5-min Rain = 0
KTAS 252247Z 03016KT 27/08 A3003 RMK A01 T02660084  RH  032%=      5-min Rain = 0
KTAS 252248Z 03014KT 26/08 A3003 RMK A01 T02640079  RH  031%=      5-min Rain = 0
KTAS 252249Z 03012KT 26/08 A3003 RMK A01 T02640083  RH  032%=      5-min Rain = 0
KTAS 252250Z 04010KT 26/08 A3003 RMK A01 T02630078  RH  031%=      5-min Rain = 0
KTAS 252251Z 05011KT 26/08 A3003 RMK A01 T02630077  RH  031%=      5-min Rain = 0
KTAS 252252Z 04013KT 26/08 A3003 RMK A01 T02640079  RH  031%=      5-min Rain = 0
KTAS 252253Z 05011KT 26/08 A3003 RMK A01 T02640079  RH  031%=      5-min Rain = 0
KTAS 252254Z 05010KT 26/08 A3003 RMK A01 T02640081  RH  031%=      5-min Rain = 0
KTAS 252255Z 04013KT 27/08 A3003 RMK A01 T02650082  RH  031%=      5-min Rain = 0
KTAS 252256Z 03013KT 27/08 A3003 RMK A01 T02650081  RH  031%=      5-min Rain = 0
KTAS 252257Z 04013KT 27/08 A3003 RMK A01 T02650084  RH  032%=      5-min Rain = 0
KTAS 252258Z 03012KT 26/09 A3003 RMK A01 T02640086  RH  032%=      5-min Rain = 0
KTAS 252259Z 03012KT 26/09 A3003 RMK A01 T02630090  RH  033%=      5-min Rain = 0
KTAS 252300Z 02013KT 27/09 A3003 RMK A01 T02650093  RH  034%=      5-min Rain = 0
KTAS 252301Z 02015KT 27/09 A3003 RMK A01 T02650090  RH  033%=      5-min Rain = 0
KTAS 252302Z 03012KT 26/09 A3003 RMK A01 T02640092  RH  034%=      5-min Rain = 0
KTAS 252303Z 04010KT 27/10 A3003 RMK A01 T02660097  RH  035%=      5-min Rain = 0
KTAS 252304Z 04011KT 27/10 A3003 RMK A01 T02670096  RH  034%=      5-min Rain = 0
KTAS 252305Z 03013KT 27/09 A3003 RMK A01 T02660090  RH  033%=      5-min Rain = 0
KTAS 252306Z 02017KT 26/09 A3003 RMK A01 T02640089  RH  033%=      5-min Rain = 0
KTAS 252307Z 03016KT 26/09 A3003 RMK A01 T02640089  RH  033%=      5-min Rain = 0
KTAS 252308Z 03013KT 26/09 A3003 RMK A01 T02630090  RH  033%=      5-min Rain = 0
KTAS 252309Z 04015KT 26/09 A3003 RMK A01 T02630092  RH  034%=      5-min Rain = 0
KTAS 252310Z 04016KT 26/09 A3003 RMK A01 T02630088  RH  033%=      5-min Rain = 0
KTAS 252311Z 03015KT 26/09 A3003 RMK A01 T02620086  RH  033%=      5-min Rain = 0
KTAS 252312Z 03011KT 26/09 A3003 RMK A01 T02610086  RH  033%=      5-min Rain = 0
KTAS 252313Z 03012KT 26/09 A3003 RMK A01 T02610088  RH  033%=      5-min Rain = 0
KTAS 252314Z 03013KT 26/09 A3003 RMK A01 T02620087  RH  033%=      5-min Rain = 0
KTAS 252315Z 03014KT 26/08 A3003 RMK A01 T02610084  RH  033%=      5-min Rain = 0
KTAS 252316Z 02012KT 26/09 A3003 RMK A01 T02600085  RH  033%=      5-min Rain = 0
KTAS 252317Z 03012KT 26/09 A3003 RMK A01 T02610087  RH  033%=      5-min Rain = 0
KTAS 252318Z 03013KT 26/09 A3003 RMK A01 T02610086  RH  033%=      5-min Rain = 0
KTAS 252319Z 02011KT 26/09 A3003 RMK A01 T02620092  RH  034%=      5-min Rain = 0
KTAS 252320Z 04011KT 26/09 A3003 RMK A01 T02630091  RH  034%=      5-min Rain = 0
KTAS 252321Z 04016KT 26/09 A3003 RMK A01 T02630092  RH  034%=      5-min Rain = 0
KTAS 252322Z 03016KT 26/09 A3004 RMK A01 T02610089  RH  034%=      5-min Rain = 0
KTAS 252323Z 03016KT 26/09 A3004 RMK A01 T02590086  RH  034%=      5-min Rain = 0
KTAS 252324Z 03013G18KT 26/09 A3004 RMK A01 T02580087  RH  034%=      5-min Rain = 0
KTAS 252325Z 02013KT 26/09 A3004 RMK A01 T02590092  RH  035%=      5-min Rain = 0
KTAS 252326Z 03014KT 26/09 A3004 RMK A01 T02600089  RH  034%=      5-min Rain = 0
KTAS 252327Z 04014KT 26/09 A3004 RMK A01 T02600090  RH  034%=      5-min Rain = 0
KTAS 252328Z 04014KT 26/09 A3004 RMK A01 T02590085  RH  033%=      5-min Rain = 0
KTAS 252329Z 05015KT 26/09 A3004 RMK A01 T02580086  RH  034%=      5-min Rain = 0
KTAS 252330Z 04012KT 26/09 A3004 RMK A01 T02580087  RH  034%=      5-min Rain = 0
KTAS 252331Z 04013KT 26/09 A3004 RMK A01 T02580091  RH  035%=      5-min Rain = 0
KTAS 252332Z 04013KT 26/09 A3004 RMK A01 T02580092  RH  035%=      5-min Rain = 0
KTAS 252333Z 03014KT 26/09 A3004 RMK A01 T02570091  RH  035%=      5-min Rain = 0
KTAS 252334Z 03012KT 26/10 A3004 RMK A01 T02580096  RH  036%=      5-min Rain = 0
KTAS 252335Z 04014KT 26/09 A3004 RMK A01 T02580091  RH  035%=      5-min Rain = 0
KTAS 252336Z 04011KT 26/09 A3004 RMK A01 T02570089  RH  035%=      5-min Rain = 0
KTAS 252337Z 04013KT 26/09 A3004 RMK A01 T02570094  RH  036%=      5-min Rain = 0
KTAS 252338Z 03012G17KT 26/09 A3004 RMK A01 T02570093  RH  036%=      5-min Rain = 0
KTAS 252339Z 03016KT 26/09 A3004 RMK A01 T02570093  RH  036%=      5-min Rain = 0
KTAS 252340Z 03015KT 26/09 A3004 RMK A01 T02550091  RH  035%=      5-min Rain = 0
KTAS 252341Z 03015KT 25/09 A3004 RMK A01 T02540088  RH  035%=      5-min Rain = 0
KTAS 252342Z 02012G18KT 25/09 A3004 RMK A01 T02540094  RH  036%=      5-min Rain = 0
KTAS 252343Z 03015KT 25/09 A3004 RMK A01 T02540091  RH  035%=      5-min Rain = 0
KTAS 252344Z 03011KT 26/09 A3004 RMK A01 T02550094  RH  036%=      5-min Rain = 0
KTAS 252345Z 03016KT 26/09 A3004 RMK A01 T02550092  RH  036%=      5-min Rain = 0
KTAS 252346Z 03016KT 25/09 A3004 RMK A01 T02530088  RH  035%=      5-min Rain = 0
KTAS 252347Z 04014KT 25/09 A3004 RMK A01 T02520092  RH  036%=      5-min Rain = 0
KTAS 252348Z 04013KT 25/09 A3004 RMK A01 T02520093  RH  036%=      5-min Rain = 0
KTAS 252349Z 05012KT 25/09 A3004 RMK A01 T02520092  RH  036%=      5-min Rain = 0
KTAS 252350Z 05013KT 25/09 A3004 RMK A01 T02510091  RH  036%=      5-min Rain = 0
KTAS 252351Z 05018KT 25/09 A3004 RMK A01 T02510091  RH  036%=      5-min Rain = 0
KTAS 252352Z 05017G22KT 25/09 A3005 RMK A01 T02500089  RH  036%=      5-min Rain = 0
KTAS 252353Z 05015KT 25/09 A3005 RMK A01 T02490086  RH  036%=      5-min Rain = 0
KTAS 252354Z 05015KT 25/09 A3005 RMK A01 T02480089  RH  036%=      5-min Rain = 0
KTAS 252355Z 05015KT 25/09 A3005 RMK A01 T02480091  RH  037%=      5-min Rain = 0
KTAS 252356Z 05014G19KT 25/09 A3005 RMK A01 T02480092  RH  037%=      5-min Rain = 0
KTAS 252357Z 05013KT 25/09 A3005 RMK A01 T02480094  RH  038%=      5-min Rain = 0
KTAS 252358Z 05012KT 25/10 A3005 RMK A01 T02480096  RH  038%=      5-min Rain = 0
KTAS 252359Z 04015KT 25/09 A3005 RMK A01 T02480094  RH  038%=      5-min Rain = 0
KTAS 260000Z 04013KT 25/09 A3005 RMK A01 T02480091  RH  037%=      5-min Rain = 0
KTAS 260001Z 04012KT 25/09 A3005 RMK A01 T02480092  RH  037%=      5-min Rain = 0
KTAS 260002Z 04014KT 25/09 A3005 RMK A01 T02480094  RH  038%=      5-min Rain = 0
KTAS 260003Z 04012KT 25/10 A3005 RMK A01 T02480095  RH  038%=      5-min Rain = 0
KTAS 260004Z 03011KT 25/10 A3005 RMK A01 T02480096  RH  038%=      5-min Rain = 0
KTAS 260005Z 04013KT 25/10 A3005 RMK A01 T02480095  RH  038%=      5-min Rain = 0
KTAS 260006Z 03014KT 25/10 A3005 RMK A01 T02470096  RH  038%=      5-min Rain = 0
KTAS 260007Z 04013KT 25/10 A3005 RMK A01 T02470095  RH  038%=      5-min Rain = 0
KTAS 260008Z 04013KT 25/10 A3005 RMK A01 T02470095  RH  038%=      5-min Rain = 0
KTAS 260009Z 04011KT 25/10 A3005 RMK A01 T02460096  RH  038%=      5-min Rain = 0
KTAS 260010Z 05011KT 25/10 A3005 RMK A01 T02460096  RH  039%=      5-min Rain = 0
KTAS 260011Z 05011KT 25/10 A3005 RMK A01 T02460098  RH  039%=      5-min Rain = 0
KTAS 260012Z 04013KT 25/10 A3006 RMK A01 T02450097  RH  039%=      5-min Rain = 0
KTAS 260013Z 04015KT 24/10 A3005 RMK A01 T02440097  RH  039%=      5-min Rain = 0
KTAS 260014Z 05015KT 24/10 A3006 RMK A01 T02430096  RH  039%=      5-min Rain = 0
KTAS 260015Z 04014KT 24/10 A3006 RMK A01 T02430097  RH  040%=      5-min Rain = 0
KTAS 260016Z 04011KT 24/10 A3006 RMK A01 T02430097  RH  040%=      5-min Rain = 0
KTAS 260017Z 04010KT 24/10 A3006 RMK A01 T02430099  RH  040%=      5-min Rain = 0
KTAS 260018Z 04009KT 24/10 A3006 RMK A01 T02430100  RH  040%=      5-min Rain = 0
KTAS 260019Z 04009KT 24/10 A3006 RMK A01 T02430102  RH  041%=      5-min Rain = 0
KTAS 260020Z 04013KT 24/10 A3006 RMK A01 T02420101  RH  041%=      5-min Rain = 0
KTAS 260021Z 05012KT 24/10 A3006 RMK A01 T02420096  RH  040%=      5-min Rain = 0
KTAS 260022Z 05011KT 24/10 A3006 RMK A01 T02410100  RH  041%=      5-min Rain = 0
KTAS 260023Z 05012KT 24/10 A3006 RMK A01 T02410099  RH  041%=      5-min Rain = 0
KTAS 260024Z 05013KT 24/10 A3006 RMK A01 T02400100  RH  041%=      5-min Rain = 0
KTAS 260025Z 05015KT 24/10 A3006 RMK A01 T02390100  RH  041%=      5-min Rain = 0
KTAS 260026Z 05013KT 24/10 A3006 RMK A01 T02390101  RH  042%=      5-min Rain = 0
KTAS 260027Z 05014KT 24/10 A3006 RMK A01 T02380100  RH  042%=      5-min Rain = 0
KTAS 260028Z 05013KT 24/10 A3006 RMK A01 T02380100  RH  042%=      5-min Rain = 0
KTAS 260029Z 05013KT 24/10 A3006 RMK A01 T02370099  RH  042%=      5-min Rain = 0
KTAS 260030Z 05013KT 24/10 A3006 RMK A01 T02370100  RH  042%=      5-min Rain = 0
KTAS 260031Z 05014KT 24/10 A3006 RMK A01 T02360098  RH  042%=      5-min Rain = 0
KTAS 260032Z 04013KT 24/10 A3006 RMK A01 T02360098  RH  042%=      5-min Rain = 0
KTAS 260033Z 05012KT 24/10 A3006 RMK A01 T02350099  RH  042%=      5-min Rain = 0
KTAS 260034Z 05012KT 24/10 A3006 RMK A01 T02350100  RH  042%=      5-min Rain = 0
KTAS 260035Z 05011KT 24/10 A3006 RMK A01 T02350099  RH  042%=      5-min Rain = 0
KTAS 260036Z 05010G15KT 23/10 A3006 RMK A01 T02340102  RH  043%=      5-min Rain = 0
KTAS 260037Z 05013KT 23/10 A3006 RMK A01 T02340101  RH  043%=      5-min Rain = 0
KTAS 260038Z 05011KT 23/10 A3007 RMK A01 T02340100  RH  043%=      5-min Rain = 0
KTAS 260039Z 05012KT 23/10 A3006 RMK A01 T02330100  RH  043%=      5-min Rain = 0
KTAS 260040Z 05010KT 23/10 A3007 RMK A01 T02330100  RH  043%=      5-min Rain = 0
KTAS 260041Z 05009KT 23/10 A3007 RMK A01 T02320102  RH  044%=      5-min Rain = 0
KTAS 260042Z 05009KT 23/10 A3007 RMK A01 T02310103  RH  044%=      5-min Rain = 0
KTAS 260043Z 05010KT 23/10 A3007 RMK A01 T02300103  RH  044%=      5-min Rain = 0
KTAS 260044Z 05010KT 23/10 A3007 RMK A01 T02300103  RH  044%=      5-min Rain = 0
KTAS 260045Z 05013KT 23/10 A3007 RMK A01 T02290101  RH  044%=      5-min Rain = 0
KTAS 260046Z 05013KT 23/10 A3007 RMK A01 T02290099  RH  044%=      5-min Rain = 0
KTAS 260047Z 05011KT 23/10 A3007 RMK A01 T02290100  RH  044%=      5-min Rain = 0
KTAS 260048Z 05011KT 23/10 A3007 RMK A01 T02290100  RH  044%=      5-min Rain = 0
KTAS 260049Z 05010KT 23/10 A3007 RMK A01 T02280100  RH  044%=      5-min Rain = 0
KTAS 260050Z 05011KT 23/10 A3007 RMK A01 T02270100  RH  044%=      5-min Rain = 0
KTAS 260051Z 05010KT 23/10 A3007 RMK A01 T02260101  RH  045%=      5-min Rain = 0
KTAS 260052Z 05010KT 23/10 A3007 RMK A01 T02260102  RH  045%=      5-min Rain = 0
KTAS 260053Z 05011KT 23/10 A3007 RMK A01 T02250101  RH  045%=      5-min Rain = 0
KTAS 260054Z 05011KT 23/10 A3007 RMK A01 T02250101  RH  045%=      5-min Rain = 0
KTAS 260055Z 05008KT 23/10 A3007 RMK A01 T02250102  RH  046%=      5-min Rain = 0
KTAS 260056Z 05009KT 22/10 A3007 RMK A01 T02230103  RH  046%=      5-min Rain = 0
KTAS 260057Z 05010KT 22/10 A3007 RMK A01 T02230102  RH  046%=      5-min Rain = 0
KTAS 260058Z 05008KT 22/10 A3007 RMK A01 T02220103  RH  047%=      5-min Rain = 0
KTAS 260059Z 05012KT 22/10 A3007 RMK A01 T02220103  RH  047%=      5-min Rain = 0
KTAS 260100Z 05011KT 22/10 A3007 RMK A01 T02220102  RH  047%=      5-min Rain = 0
KTAS 260101Z 05008KT 22/10 A3007 RMK A01 T02210103  RH  047%=      5-min Rain = 0
KTAS 260102Z 05011KT 22/10 A3008 RMK A01 T02200103  RH  047%=      5-min Rain = 0
KTAS 260103Z 05009KT 22/10 A3008 RMK A01 T02200103  RH  047%=      5-min Rain = 0
KTAS 260104Z 05010KT 22/10 A3008 RMK A01 T02180103  RH  048%=      5-min Rain = 0
KTAS 260105Z 05010KT 22/10 A3008 RMK A01 T02180103  RH  048%=      5-min Rain = 0
KTAS 260106Z 05009KT 22/10 A3008 RMK A01 T02180103  RH  048%=      5-min Rain = 0
KTAS 260107Z 05010KT 22/10 A3008 RMK A01 T02170103  RH  048%=      5-min Rain = 0
KTAS 260108Z 05010KT 22/10 A3008 RMK A01 T02160102  RH  048%=      5-min Rain = 0
KTAS 260109Z 05010KT 22/10 A3008 RMK A01 T02160102  RH  048%=      5-min Rain = 0
KTAS 260110Z 05011KT 22/10 A3008 RMK A01 T02150101  RH  048%=      5-min Rain = 0
KTAS 260111Z 05011KT 22/10 A3008 RMK A01 T02150099  RH  048%=      5-min Rain = 0
KTAS 260112Z 05010KT 22/10 A3008 RMK A01 T02160100  RH  047%=      5-min Rain = 0
KTAS 260113Z 05010KT 22/10 A3008 RMK A01 T02150099  RH  048%=      5-min Rain = 0
KTAS 260114Z 05010KT 21/10 A3008 RMK A01 T02140100  RH  048%=      5-min Rain = 0
KTAS 260115Z 05011KT 21/10 A3008 RMK A01 T02130099  RH  048%=      5-min Rain = 0
KTAS 260116Z 05010KT 21/10 A3008 RMK A01 T02130099  RH  048%=      5-min Rain = 0
KTAS 260117Z 05010KT 21/10 A3008 RMK A01 T02120099  RH  048%=      5-min Rain = 0
KTAS 260118Z 05010KT 21/10 A3008 RMK A01 T02110099  RH  048%=      5-min Rain = 0
KTAS 260119Z 05010KT 21/10 A3008 RMK A01 T02110099  RH  049%=      5-min Rain = 0
KTAS 260120Z 05009KT 21/10 A3008 RMK A01 T02090099  RH  049%=      5-min Rain = 0
KTAS 260121Z 05009KT 21/10 A3008 RMK A01 T02090098  RH  049%=      5-min Rain = 0
KTAS 260122Z 05008KT 21/10 A3008 RMK A01 T02090098  RH  049%=      5-min Rain = 0
KTAS 260123Z 05008KT 21/10 A3008 RMK A01 T02080099  RH  049%=      5-min Rain = 0
KTAS 260124Z 05009KT 21/10 A3008 RMK A01 T02060099  RH  050%=      5-min Rain = 0
KTAS 260125Z 05008KT 21/10 A3009 RMK A01 T02060099  RH  050%=      5-min Rain = 0
KTAS 260126Z 05009KT 21/10 A3009 RMK A01 T02050100  RH  051%=      5-min Rain = 0
KTAS 260127Z 05008KT 21/10 A3009 RMK A01 T02050100  RH  051%=      5-min Rain = 0
KTAS 260128Z 05008KT 20/10 A3009 RMK A01 T02040100  RH  051%=      5-min Rain = 0
KTAS 260129Z 04009KT 20/10 A3009 RMK A01 T02030101  RH  052%=      5-min Rain = 0
KTAS 260130Z 04008KT 20/10 A3009 RMK A01 T02020100  RH  052%=      5-min Rain = 0
KTAS 260131Z 04009KT 20/10 A3009 RMK A01 T02020100  RH  052%=      5-min Rain = 0
KTAS 260132Z 04009KT 20/10 A3009 RMK A01 T02020100  RH  052%=      5-min Rain = 0
KTAS 260133Z 04008KT 20/10 A3009 RMK A01 T02020100  RH  052%=      5-min Rain = 0
KTAS 260134Z 04009KT 20/10 A3009 RMK A01 T02010100  RH  052%=      5-min Rain = 0
KTAS 260135Z 04008KT 20/10 A3009 RMK A01 T02000101  RH  053%=      5-min Rain = 0
KTAS 260136Z 04008KT 20/10 A3009 RMK A01 T02000100  RH  053%=      5-min Rain = 0
KTAS 260137Z 04007KT 20/10 A3009 RMK A01 T02000099  RH  052%=      5-min Rain = 0
KTAS 260138Z 04008KT 20/10 A3009 RMK A01 T02000099  RH  052%=      5-min Rain = 0
KTAS 260139Z 04008KT 20/10 A3009 RMK A01 T02000099  RH  052%=      5-min Rain = 0
KTAS 260140Z 04008KT 20/10 A3009 RMK A01 T01990100  RH  053%=      5-min Rain = 0
KTAS 260141Z 04008KT 20/10 A3009 RMK A01 T01980100  RH  053%=      5-min Rain = 0
KTAS 260142Z 04009KT 20/10 A3009 RMK A01 T01980100  RH  053%=      5-min Rain = 0
KTAS 260143Z 05008KT 20/10 A3009 RMK A01 T01980099  RH  053%=      5-min Rain = 0
KTAS 260144Z 05007KT 20/10 A3009 RMK A01 T01980099  RH  053%=      5-min Rain = 0
KTAS 260145Z 05008KT 20/10 A3009 RMK A01 T01970099  RH  053%=      5-min Rain = 0
KTAS 260146Z 05008KT 20/10 A3009 RMK A01 T01970099  RH  053%=      5-min Rain = 0
KTAS 260147Z 05007KT 20/10 A3009 RMK A01 T01960100  RH  054%=      5-min Rain = 0
KTAS 260148Z 05008KT 20/10 A3009 RMK A01 T01950100  RH  054%=      5-min Rain = 0
KTAS 260149Z 05008KT 20/10 A3009 RMK A01 T01950100  RH  054%=      5-min Rain = 0
KTAS 260150Z 05008KT 20/10 A3009 RMK A01 T01950099  RH  054%=      5-min Rain = 0
KTAS 260151Z 05008KT 20/10 A301 RMK A01 T01950099  RH  054%=      5-min Rain = 0
KTAS 260152Z 05008KT 19/10 A301 RMK A01 T01940099  RH  054%=      5-min Rain = 0
KTAS 260153Z 05008KT 19/10 A301 RMK A01 T01930099  RH  054%=      5-min Rain = 0
KTAS 260154Z 05007KT 19/10 A301 RMK A01 T01930099  RH  054%=      5-min Rain = 0
KTAS 260155Z 05007KT 19/10 A301 RMK A01 T01920099  RH  054%=      5-min Rain = 0
KTAS 260156Z 05007KT 19/10 A301 RMK A01 T01920098  RH  054%=      5-min Rain = 0
KTAS 260157Z 05007KT 19/10 A301 RMK A01 T01920098  RH  055%=      5-min Rain = 0
KTAS 260158Z 05008KT 19/10 A301 RMK A01 T01910098  RH  055%=      5-min Rain = 0
KTAS 260159Z 05007KT 19/10 A301 RMK A01 T01910098  RH  055%=      5-min Rain = 0
KTAS 260200Z 06007KT 19/10 A301 RMK A01 T01910099  RH  055%=      5-min Rain = 0
KTAS 260201Z 06007KT 19/10 A301 RMK A01 T01900099  RH  055%=      5-min Rain = 0
KTAS 260202Z 06007KT 19/10 A301 RMK A01 T01890099  RH  056%=      5-min Rain = 0
KTAS 260203Z 06006KT 19/10 A301 RMK A01 T01880099  RH  056%=      5-min Rain = 0
KTAS 260204Z 07006KT 19/10 A301 RMK A01 T01860100  RH  057%=      5-min Rain = 0
KTAS 260205Z 07007KT 18/10 A301 RMK A01 T01840101  RH  058%=      5-min Rain = 0
KTAS 260206Z 07007KT 18/10 A301 RMK A01 T01830101  RH  059%=      5-min Rain = 0
KTAS 260207Z 07006KT 18/10 A3011 RMK A01 T01810101  RH  060%=      5-min Rain = 0
KTAS 260208Z 07006KT 18/10 A3011 RMK A01 T01800101  RH  060%=      5-min Rain = 0
KTAS 260209Z 07006KT 18/10 A3011 RMK A01 T01790101  RH  060%=      5-min Rain = 0
KTAS 260210Z 07007KT 18/10 A3011 RMK A01 T01790102  RH  061%=      5-min Rain = 0
KTAS 260211Z 08006KT 18/10 A3011 RMK A01 T01780101  RH  061%=      5-min Rain = 0
KTAS 260212Z 07007KT 18/10 A3011 RMK A01 T01780102  RH  061%=      5-min Rain = 0
KTAS 260213Z 07007KT 18/10 A3011 RMK A01 T01770102  RH  061%=      5-min Rain = 0
KTAS 260214Z 07007KT 18/10 A3011 RMK A01 T01770102  RH  062%=      5-min Rain = 0
KTAS 260215Z 07007KT 18/10 A3011 RMK A01 T01770102  RH  062%=      5-min Rain = 0
KTAS 260216Z 07007KT 18/10 A3011 RMK A01 T01760102  RH  062%=      5-min Rain = 0
KTAS 260217Z 07006KT 18/10 A3011 RMK A01 T01760102  RH  062%=      5-min Rain = 0
KTAS 260218Z 07007KT 18/10 A3011 RMK A01 T01750102  RH  062%=      5-min Rain = 0
KTAS 260219Z 07006KT 18/10 A3011 RMK A01 T01750102  RH  062%=      5-min Rain = 0
KTAS 260220Z 07007KT 17/10 A3011 RMK A01 T01740102  RH  063%=      5-min Rain = 0
KTAS 260221Z 07007KT 17/10 A3011 RMK A01 T01740102  RH  063%=      5-min Rain = 0
KTAS 260222Z 07007KT 17/10 A3011 RMK A01 T01730103  RH  063%=      5-min Rain = 0
KTAS 260223Z 07007KT 17/10 A3012 RMK A01 T01730103  RH  063%=      5-min Rain = 0
KTAS 260224Z 07006KT 17/10 A3012 RMK A01 T01720103  RH  064%=      5-min Rain = 0
KTAS 260225Z 07006KT 17/10 A3012 RMK A01 T01720103  RH  064%=      5-min Rain = 0
KTAS 260226Z 07006KT 17/10 A3012 RMK A01 T01710103  RH  064%=      5-min Rain = 0
KTAS 260227Z 07006KT 17/10 A3012 RMK A01 T01710104  RH  065%=      5-min Rain = 0
KTAS 260228Z 07006KT 17/10 A3012 RMK A01 T01700104  RH  065%=      5-min Rain = 0
KTAS 260229Z 07006KT 17/10 A3012 RMK A01 T01700104  RH  065%=      5-min Rain = 0
KTAS 260230Z 07006KT 17/10 A3012 RMK A01 T01690104  RH  066%=      5-min Rain = 0
KTAS 260231Z 07006KT 17/10 A3012 RMK A01 T01680104  RH  066%=      5-min Rain = 0
KTAS 260232Z 07006KT 17/11 A3012 RMK A01 T01680105  RH  066%=      5-min Rain = 0
KTAS 260233Z 07006KT 17/11 A3012 RMK A01 T01670105  RH  067%=      5-min Rain = 0
KTAS 260234Z 07006KT 17/11 A3012 RMK A01 T01660105  RH  067%=      5-min Rain = 0
KTAS 260235Z 08006KT 17/11 A3012 RMK A01 T01650106  RH  068%=      5-min Rain = 0
KTAS 260236Z 08006KT 16/11 A3012 RMK A01 T01630106  RH  069%=      5-min Rain = 0
KTAS 260237Z 08007KT 16/11 A3012 RMK A01 T01630106  RH  069%=      5-min Rain = 0
KTAS 260238Z 08007KT 16/11 A3013 RMK A01 T01630106  RH  069%=      5-min Rain = 0
KTAS 260239Z 08007KT 16/11 A3013 RMK A01 T01630106  RH  069%=      5-min Rain = 0
KTAS 260240Z 08007KT 16/11 A3013 RMK A01 T01630106  RH  069%=      5-min Rain = 0
KTAS 260241Z 08007KT 16/11 A3013 RMK A01 T01620106  RH  069%=      5-min Rain = 0
KTAS 260242Z 08007KT 16/11 A3013 RMK A01 T01620106  RH  069%=      5-min Rain = 0
KTAS 260243Z 08007KT 16/11 A3013 RMK A01 T01610106  RH  070%=      5-min Rain = 0
KTAS 260244Z 07007KT 16/11 A3013 RMK A01 T01610106  RH  070%=      5-min Rain = 0
KTAS 260245Z 07007KT 16/11 A3013 RMK A01 T01600106  RH  070%=      5-min Rain = 0
KTAS 260246Z 07007KT 16/11 A3013 RMK A01 T01600106  RH  070%=      5-min Rain = 0
KTAS 260247Z 07007KT 16/11 A3013 RMK A01 T01590106  RH  071%=      5-min Rain = 0
KTAS 260248Z 07007KT 16/11 A3013 RMK A01 T01600106  RH  071%=      5-min Rain = 0
KTAS 260249Z 07008KT 16/11 A3013 RMK A01 T01600107  RH  070%=      5-min Rain = 0
KTAS 260250Z 07008KT 16/11 A3013 RMK A01 T01610107  RH  070%=      5-min Rain = 0
KTAS 260251Z 06008KT 16/11 A3013 RMK A01 T01610106  RH  070%=      5-min Rain = 0
KTAS 260252Z 06008KT 16/11 A3013 RMK A01 T01620107  RH  070%=      5-min Rain = 0
KTAS 260253Z 06007KT 16/11 A3013 RMK A01 T01640107  RH  069%=      5-min Rain = 0
KTAS 260254Z 06007KT 17/11 A3013 RMK A01 T01650107  RH  069%=      5-min Rain = 0
KTAS 260255Z 06008KT 17/11 A3013 RMK A01 T01660107  RH  068%=      5-min Rain = 0
KTAS 260256Z 06008KT 17/11 A3013 RMK A01 T01660106  RH  068%=      5-min Rain = 0
KTAS 260257Z 06007KT 17/11 A3013 RMK A01 T01670106  RH  067%=      5-min Rain = 0
KTAS 260258Z 07007KT 17/11 A3013 RMK A01 T01670106  RH  067%=      5-min Rain = 0
KTAS 260259Z 07007KT 17/11 A3013 RMK A01 T01660106  RH  068%=      5-min Rain = 0
KTAS 260300Z 07007KT 17/11 A3014 RMK A01 T01650107  RH  068%=      5-min Rain = 0
KTAS 260301Z 07007KT 16/11 A3014 RMK A01 T01640106  RH  069%=      5-min Rain = 0
KTAS 260302Z 07007KT 16/11 A3014 RMK A01 T01630107  RH  069%=      5-min Rain = 0
KTAS 260303Z 07007KT 16/11 A3014 RMK A01 T01620107  RH  070%=      5-min Rain = 0
KTAS 260304Z 06007KT 16/11 A3014 RMK A01 T01620107  RH  070%=      5-min Rain = 0
KTAS 260305Z 06007KT 16/11 A3014 RMK A01 T01620107  RH  070%=      5-min Rain = 0
KTAS 260306Z 06007KT 16/11 A3014 RMK A01 T01630107  RH  069%=      5-min Rain = 0
KTAS 260307Z 06007KT 16/11 A3014 RMK A01 T01630107  RH  069%=      5-min Rain = 0
KTAS 260308Z 06007KT 16/11 A3014 RMK A01 T01640107  RH  069%=      5-min Rain = 0
KTAS 260309Z 06008KT 16/11 A3014 RMK A01 T01640106  RH  068%=      5-min Rain = 0
KTAS 260310Z 05007KT 17/11 A3014 RMK A01 T01650107  RH  068%=      5-min Rain = 0
KTAS 260311Z 05007KT 17/11 A3014 RMK A01 T01650107  RH  068%=      5-min Rain = 0
KTAS 260312Z 06007KT 17/11 A3014 RMK A01 T01660107  RH  068%=      5-min Rain = 0
KTAS 260313Z 06007KT 17/11 A3014 RMK A01 T01660107  RH  068%=      5-min Rain = 0
KTAS 260314Z 06007KT 17/11 A3014 RMK A01 T01660106  RH  068%=      5-min Rain = 0
KTAS 260315Z 06007KT 17/11 A3014 RMK A01 T01660106  RH  068%=      5-min Rain = 0
KTAS 260316Z 06008KT 17/11 A3015 RMK A01 T01660107  RH  068%=      5-min Rain = 0
KTAS 260317Z 06008KT 17/11 A3015 RMK A01 T01660107  RH  068%=      5-min Rain = 0
KTAS 260318Z 06007KT 17/11 A3015 RMK A01 T01660106  RH  068%=      5-min Rain = 0
KTAS 260319Z 06008KT 17/11 A3015 RMK A01 T01660106  RH  068%=      5-min Rain = 0
KTAS 260320Z 06008KT 17/11 A3015 RMK A01 T01660106  RH  068%=      5-min Rain = 0
KTAS 260321Z 06008KT 17/11 A3015 RMK A01 T01650106  RH  068%=      5-min Rain = 0
KTAS 260322Z 06008KT 17/11 A3015 RMK A01 T01650106  RH  068%=      5-min Rain = 0
KTAS 260323Z 06008KT 17/11 A3015 RMK A01 T01650106  RH  068%=      5-min Rain = 0
KTAS 260324Z 06008KT 17/11 A3015 RMK A01 T01650106  RH  068%=      5-min Rain = 0
KTAS 260325Z 06008KT 17/11 A3015 RMK A01 T01650106  RH  068%=      5-min Rain = 0
KTAS 260326Z 06007KT 16/11 A3015 RMK A01 T01640106  RH  069%=      5-min Rain = 0
KTAS 260327Z 07007KT 16/11 A3015 RMK A01 T01620107  RH  069%=      5-min Rain = 0
KTAS 260328Z 07007KT 16/11 A3015 RMK A01 T01610106  RH  070%=      5-min Rain = 0
KTAS 260329Z 07007KT 16/11 A3015 RMK A01 T01600106  RH  070%=      5-min Rain = 0
KTAS 260330Z 07007KT 16/11 A3015 RMK A01 T01600107  RH  071%=      5-min Rain = 0
KTAS 260331Z 07006KT 16/11 A3015 RMK A01 T01580106  RH  071%=      5-min Rain = 0
KTAS 260332Z 08006KT 16/11 A3016 RMK A01 T01570106  RH  072%=      5-min Rain = 0
KTAS 260333Z 08006KT 16/11 A3016 RMK A01 T01560107  RH  072%=      5-min Rain = 0
KTAS 260334Z 08006KT 16/11 A3016 RMK A01 T01550107  RH  073%=      5-min Rain = 0
KTAS 260335Z 08007KT 16/11 A3016 RMK A01 T01550107  RH  073%=      5-min Rain = 0
KTAS 260336Z 07007KT 15/11 A3016 RMK A01 T01540107  RH  073%=      5-min Rain = 0
KTAS 260337Z 07007KT 15/11 A3016 RMK A01 T01540107  RH  073%=      5-min Rain = 0
KTAS 260338Z 07007KT 15/11 A3016 RMK A01 T01540107  RH  074%=      5-min Rain = 0
KTAS 260339Z 07007KT 15/11 A3016 RMK A01 T01530107  RH  074%=      5-min Rain = 0
KTAS 260340Z 07007KT 15/11 A3016 RMK A01 T01530107  RH  074%=      5-min Rain = 0
KTAS 260341Z 07006KT 15/11 A3016 RMK A01 T01520107  RH  074%=      5-min Rain = 0
KTAS 260342Z 07007KT 15/11 A3016 RMK A01 T01510107  RH  075%=      5-min Rain = 0
KTAS 260343Z 07007KT 15/11 A3016 RMK A01 T01510107  RH  075%=      5-min Rain = 0
KTAS 260344Z 07007KT 15/11 A3016 RMK A01 T01520107  RH  075%=      5-min Rain = 0
KTAS 260345Z 07007KT 15/11 A3016 RMK A01 T01510107  RH  075%=      5-min Rain = 0
KTAS 260346Z 07007KT 15/11 A3016 RMK A01 T01510107  RH  075%=      5-min Rain = 0
KTAS 260347Z 07007KT 15/11 A3016 RMK A01 T01510106  RH  075%=      5-min Rain = 0
KTAS 260348Z 07007KT 15/11 A3016 RMK A01 T01510106  RH  074%=      5-min Rain = 0
KTAS 260349Z 07007KT 15/11 A3016 RMK A01 T01510106  RH  075%=      5-min Rain = 0
KTAS 260350Z 07007KT 15/11 A3017 RMK A01 T01510107  RH  075%=      5-min Rain = 0
KTAS 260351Z 07007KT 15/11 A3017 RMK A01 T01510106  RH  075%=      5-min Rain = 0
KTAS 260352Z 07007KT 15/11 A3017 RMK A01 T01510106  RH  075%=      5-min Rain = 0
KTAS 260353Z 07008KT 15/11 A3017 RMK A01 T01500106  RH  075%=      5-min Rain = 0
KTAS 260354Z 07008KT 15/11 A3017 RMK A01 T01490106  RH  075%=      5-min Rain = 0
KTAS 260355Z 07008KT 15/11 A3017 RMK A01 T01500106  RH  075%=      5-min Rain = 0
KTAS 260356Z 07008KT 15/11 A3017 RMK A01 T01510106  RH  075%=      5-min Rain = 0
KTAS 260357Z 07008KT 15/11 A3017 RMK A01 T01510106  RH  074%=      5-min Rain = 0
KTAS 260358Z 07008KT 15/11 A3017 RMK A01 T01520106  RH  074%=      5-min Rain = 0
KTAS 260359Z 07008KT 15/11 A3017 RMK A01 T01530106  RH  074%=      5-min Rain = 0
KTAS 260400Z 07007KT 15/11 A3017 RMK A01 T01530106  RH  074%=      5-min Rain = 0
KTAS 260401Z 07007KT 15/11 A3017 RMK A01 T01520106  RH  074%=      5-min Rain = 0
KTAS 260402Z 06008KT 15/11 A3017 RMK A01 T01520106  RH  074%=      5-min Rain = 0
KTAS 260403Z 06007KT 15/11 A3017 RMK A01 T01530106  RH  074%=      5-min Rain = 0
KTAS 260404Z 06008KT 15/11 A3017 RMK A01 T01530106  RH  073%=      5-min Rain = 0
KTAS 260405Z 06007KT 15/11 A3017 RMK A01 T01540106  RH  073%=      5-min Rain = 0
KTAS 260406Z 06008KT 15/11 A3017 RMK A01 T01540106  RH  073%=      5-min Rain = 0
KTAS 260407Z 06008KT 15/11 A3017 RMK A01 T01540106  RH  073%=      5-min Rain = 0
KTAS 260408Z 05008KT 16/11 A3017 RMK A01 T01550106  RH  073%=      5-min Rain = 0
KTAS 260409Z 06007KT 16/11 A3017 RMK A01 T01550105  RH  073%=      5-min Rain = 0
KTAS 260410Z 05007KT 15/11 A3017 RMK A01 T01540106  RH  073%=      5-min Rain = 0
KTAS 260411Z 05008KT 15/11 A3017 RMK A01 T01540106  RH  073%=      5-min Rain = 0
KTAS 260412Z 05007KT 15/11 A3017 RMK A01 T01530105  RH  073%=      5-min Rain = 0
KTAS 260413Z 05007KT 15/11 A3017 RMK A01 T01530106  RH  073%=      5-min Rain = 0
KTAS 260414Z 05007KT 15/11 A3017 RMK A01 T01530106  RH  073%=      5-min Rain = 0
KTAS 260415Z 06008KT 15/11 A3017 RMK A01 T01530106  RH  074%=      5-min Rain = 0
KTAS 260416Z 05008KT 15/11 A3017 RMK A01 T01530106  RH  074%=      5-min Rain = 0
KTAS 260417Z 05007KT 15/11 A3017 RMK A01 T01530106  RH  074%=      5-min Rain = 0
KTAS 260418Z 05007KT 15/11 A3017 RMK A01 T01530106  RH  074%=      5-min Rain = 0
KTAS 260419Z 05007KT 15/11 A3017 RMK A01 T01520106  RH  074%=      5-min Rain = 0
KTAS 260420Z 05007KT 15/11 A3017 RMK A01 T01510106  RH  075%=      5-min Rain = 0
KTAS 260421Z 05007KT 15/11 A3017 RMK A01 T01500106  RH  075%=      5-min Rain = 0
KTAS 260422Z 05007KT 15/11 A3017 RMK A01 T01500106  RH  075%=      5-min Rain = 0
KTAS 260423Z 05007KT 15/11 A3017 RMK A01 T01490106  RH  076%=      5-min Rain = 0
KTAS 260424Z 05006KT 15/11 A3017 RMK A01 T01490106  RH  076%=      5-min Rain = 0
KTAS 260425Z 06007KT 15/11 A3017 RMK A01 T01490106  RH  076%=      5-min Rain = 0
KTAS 260426Z 06006KT 15/11 A3017 RMK A01 T01490106  RH  076%=      5-min Rain = 0
KTAS 260427Z 06006KT 15/11 A3017 RMK A01 T01490107  RH  076%=      5-min Rain = 0
KTAS 260428Z 06006KT 15/11 A3017 RMK A01 T01500106  RH  075%=      5-min Rain = 0
KTAS 260429Z 06006KT 15/11 A3017 RMK A01 T01500106  RH  075%=      5-min Rain = 0
KTAS 260430Z 06006KT 15/11 A3018 RMK A01 T01490106  RH  075%=      5-min Rain = 0
KTAS 260431Z 07007KT 15/11 A3018 RMK A01 T01480106  RH  076%=      5-min Rain = 0
KTAS 260432Z 07007KT 15/11 A3018 RMK A01 T01460105  RH  077%=      5-min Rain = 0
KTAS 260433Z 07007KT 14/11 A3018 RMK A01 T01440105  RH  078%=      5-min Rain = 0
KTAS 260434Z 07007KT 14/11 A3018 RMK A01 T01430106  RH  078%=      5-min Rain = 0
KTAS 260435Z 07007KT 14/11 A3018 RMK A01 T01420106  RH  079%=      5-min Rain = 0
KTAS 260436Z 07007KT 14/11 A3018 RMK A01 T01410106  RH  079%=      5-min Rain = 0
KTAS 260437Z 06007KT 14/11 A3018 RMK A01 T01410106  RH  079%=      5-min Rain = 0
KTAS 260438Z 06007KT 14/11 A3018 RMK A01 T01420106  RH  079%=      5-min Rain = 0
KTAS 260439Z 06007KT 14/11 A3018 RMK A01 T01420106  RH  079%=      5-min Rain = 0
KTAS 260440Z 06007KT 14/11 A3018 RMK A01 T01430106  RH  079%=      5-min Rain = 0
KTAS 260441Z 06007KT 14/11 A3018 RMK A01 T01430106  RH  078%=      5-min Rain = 0
KTAS 260442Z 06007KT 14/11 A3018 RMK A01 T01440106  RH  078%=      5-min Rain = 0
KTAS 260443Z 06007KT 14/11 A3018 RMK A01 T01440105  RH  078%=      5-min Rain = 0
KTAS 260444Z 05007KT 14/11 A3018 RMK A01 T01440105  RH  077%=      5-min Rain = 0
KTAS 260445Z 06007KT 14/11 A3018 RMK A01 T01440105  RH  077%=      5-min Rain = 0
KTAS 260446Z 06006KT 14/11 A3018 RMK A01 T01440105  RH  078%=      5-min Rain = 0
KTAS 260447Z 06006KT 14/11 A3018 RMK A01 T01430105  RH  078%=      5-min Rain = 0
KTAS 260448Z 07006KT 14/11 A3018 RMK A01 T01440106  RH  078%=      5-min Rain = 0
KTAS 260449Z 07006KT 14/11 A3018 RMK A01 T01430105  RH  078%=      5-min Rain = 0
KTAS 260450Z 07007KT 14/11 A3018 RMK A01 T01410105  RH  079%=      5-min Rain = 0
KTAS 260451Z 07006KT 14/10 A3018 RMK A01 T01390104  RH  079%=      5-min Rain = 0
KTAS 260452Z 07007KT 14/10 A3018 RMK A01 T01380104  RH  080%=      5-min Rain = 0
KTAS 260453Z 07007KT 14/10 A3018 RMK A01 T01370104  RH  080%=      5-min Rain = 0
KTAS 260454Z 06007KT 14/10 A3018 RMK A01 T01380104  RH  080%=      5-min Rain = 0
KTAS 260455Z 06007KT 14/11 A3018 RMK A01 T01380105  RH  080%=      5-min Rain = 0
KTAS 260456Z 06007KT 14/11 A3018 RMK A01 T01390105  RH  080%=      5-min Rain = 0
KTAS 260457Z 06007KT 14/10 A3018 RMK A01 T01400104  RH  079%=      5-min Rain = 0
KTAS 260458Z 06007KT 14/11 A3018 RMK A01 T01400105  RH  079%=      5-min Rain = 0
KTAS 260459Z 06008KT 14/11 A3018 RMK A01 T01410105  RH  079%=      5-min Rain = 0

Page generated in 0.2633 seconds.